| time (UTC) | temp C | wind direction | speed KPH | gust KPH | rain 1hr cm | rain 24hr cm | rain mn cm | humidity % | barometer mb |
| 20260906052404 | 25 | 243 | 3.2 | 12.9 | 0.00 | 0.00 | 0.00 | 46 | 1013.0 |
| 20260906052313 | 25 | 238 | 3.2 | 12.9 | 0.00 | 0.00 | 0.00 | 46 | 1012.9 |
| 20260906052217 | 25 | 225 | 4.8 | 14.5 | 0.00 | 0.00 | 0.00 | 46 | 1013.0 |
| 20260906051906 | 25 | 211 | 4.8 | 14.5 | 0.00 | 0.00 | 0.00 | 46 | 1012.9 |
| 20260906051708 | 24 | 250 | 4.8 | 14.5 | 0.00 | 0.00 | 0.00 | 46 | 1013.0 |
| 20260906051507 | 24 | 237 | 6.4 | 14.5 | 0.00 | 0.00 | 0.00 | 46 | 1013.0 |
| 20260906051403 | 24 | 204 | 6.4 | 14.5 | 0.00 | 0.00 | 0.00 | 46 | 1013.0 |
| 20260906051308 | 24 | 230 | 6.4 | 14.5 | 0.00 | 0.00 | 0.00 | 46 | 1013.0 |
| 20260906051120 | 24 | 194 | 6.4 | 16.1 | 0.00 | 0.00 | 0.00 | 46 | 1013.0 |
| 20260906051015 | 24 | 245 | 6.4 | 16.1 | 0.00 | 0.00 | 0.00 | 46 | 1012.9 |
| 20260906050920 | 23 | 244 | 6.4 | 16.1 | 0.00 | 0.00 | 0.00 | 47 | 1012.9 |
| 20260906050827 | 23 | 246 | 4.8 | 16.1 | 0.00 | 0.00 | 0.00 | 47 | 1012.9 |
| 20260906050107 | 23 | 219 | 4.8 | 14.5 | 0.00 | 0.00 | 0.00 | 48 | 1012.9 |
| 20260906045907 | 23 | 229 | 6.4 | 14.5 | 0.00 | 0.00 | 0.00 | 49 | 1012.9 |
| 20260906045707 | 23 | 210 | 6.4 | 14.5 | 0.00 | 0.00 | 0.00 | 49 | 1012.9 |
| 20260906045505 | 23 | 267 | 8.0 | 14.5 | 0.00 | 0.00 | 0.00 | 49 | 1012.9 |
| 20260906045402 | 23 | 212 | 8.0 | 14.5 | 0.00 | 0.00 | 0.00 | 50 | 1012.8 |
| 20260906045307 | 23 | 236 | 8.0 | 14.5 | 0.00 | 0.00 | 0.00 | 50 | 1012.9 |
| 20260906045108 | 23 | 251 | 6.4 | 14.5 | 0.00 | 0.00 | 0.00 | 51 | 1012.9 |
| 20260906044908 | 22 | 234 | 6.4 | 14.5 | 0.00 | 0.00 | 0.00 | 51 | 1012.9 |
| 20260906044706 | 22 | 223 | 6.4 | 14.5 | 0.00 | 0.00 | 0.00 | 52 | 1013.0 |
| 20260906044539 | 22 | 246 | 6.4 | 17.7 | 0.00 | 0.00 | 0.00 | 52 | 1012.9 |
| 20260906044503 | 22 | 231 | 6.4 | 17.7 | 0.00 | 0.00 | 0.00 | 52 | 1012.9 |
| 20260906044439 | 22 | 221 | 6.4 | 17.7 | 0.00 | 0.00 | 0.00 | 52 | 1012.9 |
| 20260906044022 | 22 | 266 | 8.0 | 17.7 | 0.00 | 0.00 | 0.00 | 53 | 1012.9 |
| 20260906043928 | 22 | 251 | 8.0 | 17.7 | 0.00 | 0.00 | 0.00 | 53 | 1012.9 |
| 20260906043551 | 22 | 223 | 8.0 | 17.7 | 0.00 | 0.00 | 0.00 | 53 | 1012.9 |
| 20260906043521 | 22 | 225 | 8.0 | 16.1 | 0.00 | 0.00 | 0.00 | 54 | 1012.8 |
| 20260906042906 | 22 | 221 | 8.0 | 17.7 | 0.00 | 0.00 | 0.00 | 54 | 1012.8 |
| 20260906042707 | 22 | 238 | 8.0 | 17.7 | 0.00 | 0.00 | 0.00 | 54 | 1012.8 |
| 20260906042519 | 22 | 217 | 8.0 | 17.7 | 0.00 | 0.00 | 0.00 | 54 | 1012.6 |
| 20260906042442 | 22 | 222 | 8.0 | 17.7 | 0.00 | 0.00 | 0.00 | 54 | 1012.8 |
| 20260906042414 | 22 | 240 | 8.0 | 17.7 | 0.00 | 0.00 | 0.00 | 53 | 1012.7 |
| 20260906041906 | 22 | 238 | 8.0 | 12.9 | 0.00 | 0.00 | 0.00 | 53 | 1012.7 |
| 20260906041706 | 22 | 204 | 6.4 | 12.9 | 0.00 | 0.00 | 0.00 | 53 | 1012.7 |
| 20260906041539 | 22 | 244 | 6.4 | 12.9 | 0.00 | 0.00 | 0.00 | 53 | 1012.9 |
| 20260906041503 | 22 | 238 | 6.4 | 14.5 | 0.00 | 0.00 | 0.00 | 54 | 1012.7 |
| 20260906041421 | 22 | 245 | 8.0 | 14.5 | 0.00 | 0.00 | 0.00 | 54 | 1012.9 |
| 20260906040913 | 22 | 227 | 8.0 | 14.5 | 0.00 | 0.00 | 0.00 | 54 | 1012.8 |
| 20260906040729 | 22 | 235 | 8.0 | 14.5 | 0.00 | 0.00 | 0.00 | 54 | 1012.8 |
| 20260906040632 | 22 | 225 | 8.0 | 14.5 | 0.00 | 0.00 | 0.00 | 54 | 1012.7 |
| 20260906040604 | 22 | 219 | 6.4 | 14.5 | 0.00 | 0.00 | 0.00 | 54 | 1012.8 |
| 20260906040108 | 22 | 238 | 6.4 | 12.9 | 0.00 | 0.00 | 0.00 | 54 | 1012.6 |
| 20260906035906 | 22 | 225 | 4.8 | 12.9 | 0.00 | 0.00 | 0.00 | 54 | 1012.7 |
| 20260906035706 | 21 | 231 | 4.8 | 12.9 | 0.00 | 0.00 | 0.00 | 54 | 1012.6 |
| 20260906035542 | 21 | 223 | 3.2 | 12.9 | 0.00 | 0.00 | 0.00 | 54 | 1012.7 |
| 20260906035511 | 21 | 213 | 3.2 | 12.9 | 0.00 | 0.00 | 0.00 | 54 | 1012.7 |
| 20260906035442 | 21 | 221 | 1.6 | 12.9 | 0.00 | 0.00 | 0.00 | 54 | 1012.7 |
| 20260906035034 | 21 | 238 | 3.2 | 11.3 | 0.00 | 0.00 | 0.00 | 54 | 1012.6 |
| 20260906034943 | 21 | 221 | 4.8 | 14.5 | 0.00 | 0.00 | 0.00 | 54 | 1012.6 |
| 20260906034306 | 21 | 263 | 3.2 | 14.5 | 0.00 | 0.00 | 0.00 | 54 | 1012.6 |
| 20260906034106 | 21 | 240 | 3.2 | 14.5 | 0.00 | 0.00 | 0.00 | 53 | 1012.6 |
| 20260906034001 | 22 | 239 | 1.6 | 14.5 | 0.00 | 0.00 | 0.00 | 53 | 1012.5 |
| 20260906033902 | 22 | 234 | 1.6 | 8.0 | 0.00 | 0.00 | 0.00 | 53 | 1012.5 |
| 20260906033813 | 22 | 253 | 1.6 | 8.0 | 0.00 | 0.00 | 0.00 | 53 | 1012.5 |
| 20260906033746 | 22 | 244 | 1.6 | 8.0 | 0.00 | 0.00 | 0.00 | 53 | 1012.5 |
| 20260906033717 | 22 | 246 | 1.6 | 8.0 | 0.00 | 0.00 | 0.00 | 53 | 1012.5 |
| 20260906033629 | 22 | 216 | 3.2 | 8.0 | 0.00 | 0.00 | 0.00 | 53 | 1012.5 |
| 20260906032403 | 22 | 230 | 1.6 | 6.4 | 0.00 | 0.00 | 0.00 | 53 | 1012.4 |
| 20260906032311 | 22 | 247 | 0.0 | 6.4 | 0.00 | 0.00 | 0.00 | 53 | 1012.5 |
| 20260906032214 | 22 | 250 | 0.0 | 4.8 | 0.00 | 0.00 | 0.00 | 53 | 1012.5 |
| 20260906032116 | 22 | 233 | 0.0 | 0.0 | 0.00 | 0.00 | 0.00 | 53 | 1012.5 |
| 20260906031707 | 22 | 261 | 0.0 | 0.0 | 0.00 | 0.00 | 0.00 | 53 | 1012.4 |
| 20260906031514 | 22 | 232 | 0.0 | 0.0 | 0.00 | 0.00 | 0.00 | 53 | 1012.4 |
| 20260906031442 | 22 | 230 | 0.0 | 0.0 | 0.00 | 0.00 | 0.00 | 53 | 1012.4 |
| 20260906031411 | 22 | 228 | 0.0 | 0.0 | 0.00 | 0.00 | 0.00 | 53 | 1012.4 |
| 20260906030907 | 22 | 268 | 0.0 | 6.4 | 0.00 | 0.00 | 0.00 | 53 | 1012.4 |
| 20260906030707 | 22 | 268 | 0.0 | 6.4 | 0.00 | 0.00 | 0.00 | 53 | 1012.3 |
| 20260906030507 | 22 | 267 | 0.0 | 6.4 | 0.00 | 0.00 | 0.00 | 53 | 1012.3 |
| 20260906030403 | 22 | 258 | 0.0 | 6.4 | 0.00 | 0.00 | 0.00 | 53 | 1012.3 |
| 20260906030307 | 22 | 253 | 0.0 | 6.4 | 0.00 | 0.00 | 0.00 | 53 | 1012.3 |
| 20260906030151 | 22 | 254 | 0.0 | 6.4 | 0.00 | 0.00 | 0.00 | 52 | 1012.3 |
| 20260906030054 | 22 | 253 | 0.0 | 4.8 | 0.00 | 0.00 | 0.00 | 52 | 1012.2 |
| 20260906025950 | 22 | 254 | 1.6 | 9.7 | 0.00 | 0.00 | 0.00 | 52 | 1012.3 |
| 20260906025331 | 22 | 248 | 1.6 | 9.7 | 0.00 | 0.00 | 0.00 | 52 | 1012.2 |
| 20260906025236 | 22 | 272 | 1.6 | 11.3 | 0.00 | 0.00 | 0.00 | 52 | 1012.2 |
| 20260906025143 | 22 | 249 | 3.2 | 11.3 | 0.00 | 0.00 | 0.00 | 52 | 1012.1 |
| 20260906025134 | 22 | 249 | 3.2 | 11.3 | 0.00 | 0.00 | 0.00 | 52 | 1012.1 |
| 20260906024736 | 22 | 240 | 3.2 | 11.3 | 0.00 | 0.00 | 0.00 | 52 | 1012.1 |
| 20260906024704 | 22 | 255 | 3.2 | 11.3 | 0.00 | 0.00 | 0.00 | 51 | 1012.1 |
| 20260906024325 | 22 | 261 | 3.2 | 11.3 | 0.00 | 0.00 | 0.00 | 51 | 1012.1 |
| 20260906024218 | 22 | 258 | 1.6 | 11.3 | 0.00 | 0.00 | 0.00 | 51 | 1012.1 |
| 20260906023910 | 22 | 248 | 0.0 | 9.7 | 0.00 | 0.00 | 0.00 | 50 | 1012.1 |
| 20260906023816 | 22 | 253 | 0.0 | 4.8 | 0.00 | 0.00 | 0.00 | 50 | 1012.1 |
| 20260906023742 | 22 | 263 | 0.0 | 0.0 | 0.00 | 0.00 | 0.00 | 50 | 1012.1 |
| 20260906023422 | 22 | 250 | 0.0 | 0.0 | 0.00 | 0.00 | 0.00 | 50 | 1012.0 |
| 20260906022707 | 22 | 250 | 0.0 | 0.0 | 0.00 | 0.00 | 0.00 | 49 | 1012.0 |
| 20260906022506 | 22 | 250 | 1.6 | 8.0 | 0.00 | 0.00 | 0.00 | 49 | 1012.0 |
| 20260906022352 | 22 | 250 | 1.6 | 8.0 | 0.00 | 0.00 | 0.00 | 49 | 1012.0 |
| 20260906022312 | 22 | 250 | 1.6 | 8.0 | 0.00 | 0.00 | 0.00 | 49 | 1011.9 |
| 20260906022207 | 22 | 251 | 1.6 | 8.0 | 0.00 | 0.00 | 0.00 | 49 | 1012.0 |
| 20260906022113 | 22 | 248 | 1.6 | 8.0 | 0.00 | 0.00 | 0.00 | 49 | 1012.0 |
| 20260906021706 | 22 | 250 | 1.6 | 8.0 | 0.00 | 0.00 | 0.00 | 49 | 1011.9 |
| 20260906021507 | 22 | 207 | 0.0 | 8.0 | 0.00 | 0.00 | 0.00 | 49 | 1011.9 |
| 20260906021349 | 22 | 223 | 0.0 | 6.4 | 0.00 | 0.00 | 0.00 | 49 | 1011.9 |
| 20260906021309 | 22 | 229 | 0.0 | 6.4 | 0.00 | 0.00 | 0.00 | 49 | 1012.0 |
| 20260906021104 | 22 | 265 | 0.0 | 6.4 | 0.00 | 0.00 | 0.00 | 49 | 1011.9 |
| 20260906020905 | 23 | 253 | 1.6 | 6.4 | 0.00 | 0.00 | 0.00 | 48 | 1011.9 |
| 20260906020847 | 23 | 233 | 1.6 | 6.4 | 0.00 | 0.00 | 0.00 | 48 | 1011.9 |
| 20260906020706 | 23 | 236 | 1.6 | 8.0 | 0.00 | 0.00 | 0.00 | 48 | 1011.8 |
| 20260906020518 | 23 | 209 | 3.2 | 8.0 | 0.00 | 0.00 | 0.00 | 48 | 1011.9 |
| 20260906020448 | 23 | 208 | 3.2 | 8.0 | 0.00 | 0.00 | 0.00 | 48 | 1011.9 |
| 20260906020418 | 23 | 212 | 3.2 | 8.0 | 0.00 | 0.00 | 0.00 | 48 | 1011.8 |
| 20260906020321 | 23 | 227 | 3.2 | 8.0 | 0.00 | 0.00 | 0.00 | 48 | 1011.8 |
| 20260906020217 | 23 | 221 | 3.2 | 8.0 | 0.00 | 0.00 | 0.00 | 48 | 1011.9 |
| 20260906015538 | 23 | 244 | 3.2 | 11.3 | 0.00 | 0.00 | 0.00 | 49 | 1011.8 |
| 20260906015510 | 23 | 236 | 3.2 | 11.3 | 0.00 | 0.00 | 0.00 | 48 | 1011.8 |
| 20260906014846 | 23 | 197 | 3.2 | 11.3 | 0.00 | 0.00 | 0.00 | 48 | 1011.8 |
| 20260906014654 | 23 | 227 | 3.2 | 11.3 | 0.00 | 0.00 | 0.00 | 48 | 1011.9 |
| 20260906014507 | 23 | 224 | 1.6 | 11.3 | 0.00 | 0.00 | 0.00 | 48 | 1011.9 |
| 20260906014432 | 23 | 227 | 1.6 | 11.3 | 0.00 | 0.00 | 0.00 | 49 | 1011.9 |
| 20260906014405 | 23 | 213 | 1.6 | 11.3 | 0.00 | 0.00 | 0.00 | 49 | 1011.9 |
| 20260906013858 | 23 | 242 | 3.2 | 12.9 | 0.00 | 0.00 | 0.00 | 48 | 1012.0 |
| 20260906013848 | 23 | 227 | 3.2 | 12.9 | 0.00 | 0.00 | 0.00 | 48 | 1012.0 |
| 20260906013652 | 23 | 235 | 3.2 | 12.9 | 0.00 | 0.00 | 0.00 | 48 | 1012.0 |
| 20260906013454 | 23 | 230 | 3.2 | 12.9 | 0.00 | 0.00 | 0.00 | 48 | 1011.9 |
| 20260906013348 | 23 | 206 | 3.2 | 12.9 | 0.00 | 0.00 | 0.00 | 48 | 1011.9 |
| 20260906013309 | 23 | 219 | 1.6 | 12.9 | 0.00 | 0.00 | 0.00 | 48 | 1011.9 |
| 20260906013201 | 23 | 219 | 1.6 | 11.3 | 0.00 | 0.00 | 0.00 | 48 | 1011.9 |
| 20260906013103 | 23 | 238 | 1.6 | 11.3 | 0.00 | 0.00 | 0.00 | 48 | 1011.9 |
| 20260906012651 | 23 | 215 | 0.0 | 6.4 | 0.00 | 0.00 | 0.00 | 49 | 1012.0 |
| 20260906012451 | 23 | 234 | 1.6 | 8.0 | 0.00 | 0.00 | 0.00 | 49 | 1012.0 |
| 20260906012343 | 23 | 198 | 1.6 | 11.3 | 0.00 | 0.00 | 0.00 | 49 | 1012.0 |
| 20260906012250 | 23 | 258 | 1.6 | 11.3 | 0.00 | 0.00 | 0.00 | 49 | 1012.0 |
| 20260906012056 | 23 | 248 | 1.6 | 11.3 | 0.00 | 0.00 | 0.00 | 50 | 1012.0 |
| 20260906012005 | 23 | 259 | 3.2 | 11.3 | 0.00 | 0.00 | 0.00 | 49 | 1012.0 |
| 20260906011953 | 23 | 241 | 3.2 | 11.3 | 0.00 | 0.00 | 0.00 | 49 | 1012.0 |
| 20260906011456 | 23 | 213 | 4.8 | 12.9 | 0.00 | 0.00 | 0.00 | 49 | 1011.9 |
| 20260906011421 | 23 | 238 | 4.8 | 12.9 | 0.00 | 0.00 | 0.00 | 49 | 1011.9 |
| 20260906011357 | 23 | 231 | 4.8 | 12.9 | 0.00 | 0.00 | 0.00 | 49 | 1011.9 |
| 20260906011255 | 23 | 280 | 6.4 | 14.5 | 0.00 | 0.00 | 0.00 | 48 | 1011.9 |
| 20260906010944 | 23 | 263 | 6.4 | 14.5 | 0.00 | 0.00 | 0.00 | 48 | 1011.8 |
| 20260906010442 | 23 | 230 | 6.4 | 14.5 | 0.00 | 0.00 | 0.00 | 48 | 1011.8 |
| 20260906010332 | 23 | 235 | 4.8 | 14.5 | 0.00 | 0.00 | 0.00 | 48 | 1011.8 |
| 20260906010242 | 23 | 267 | 4.8 | 14.5 | 0.00 | 0.00 | 0.00 | 48 | 1011.8 |
| 20260906010042 | 23 | 250 | 4.8 | 12.9 | 0.00 | 0.00 | 0.00 | 48 | 1011.8 |
| 20260906005844 | 23 | 279 | 4.8 | 12.9 | 0.00 | 0.00 | 0.00 | 48 | 1011.8 |
| 20260906005833 | 23 | 248 | 4.8 | 12.9 | 0.00 | 0.00 | 0.00 | 48 | 1011.8 |
| 20260906005641 | 23 | 291 | 4.8 | 12.9 | 0.00 | 0.00 | 0.00 | 48 | 1011.9 |
| 20260906005443 | 23 | 254 | 3.2 | 12.9 | 0.00 | 0.00 | 0.00 | 48 | 1011.8 |
| 20260906005331 | 23 | 247 | 3.2 | 12.9 | 0.00 | 0.00 | 0.00 | 48 | 1011.8 |
| 20260906005248 | 23 | 270 | 3.2 | 12.9 | 0.00 | 0.00 | 0.00 | 48 | 1011.8 |
| 20260906005149 | 23 | 269 | 3.2 | 12.9 | 0.00 | 0.00 | 0.00 | 49 | 1011.8 |
| 20260906004833 | 23 | 278 | 4.8 | 12.9 | 0.00 | 0.00 | 0.00 | 49 | 1011.8 |
| 20260906004637 | 23 | 260 | 4.8 | 12.9 | 0.00 | 0.00 | 0.00 | 49 | 1011.8 |
| 20260906004437 | 23 | 269 | 4.8 | 12.9 | 0.00 | 0.00 | 0.00 | 50 | 1011.8 |
| 20260906004332 | 23 | 250 | 4.8 | 12.9 | 0.00 | 0.00 | 0.00 | 50 | 1011.8 |
| 20260906004238 | 23 | 222 | 4.8 | 12.9 | 0.00 | 0.00 | 0.00 | 50 | 1011.9 |
| 20260906004038 | 23 | 224 | 4.8 | 12.9 | 0.00 | 0.00 | 0.00 | 50 | 1011.8 |
| 20260906003831 | 23 | 259 | 4.8 | 12.9 | 0.00 | 0.00 | 0.00 | 50 | 1011.8 |
| 20260906003635 | 23 | 263 | 4.8 | 12.9 | 0.00 | 0.00 | 0.00 | 50 | 1011.9 |
| 20260906003453 | 23 | 259 | 4.8 | 11.3 | 0.00 | 0.00 | 0.00 | 50 | 1011.9 |
| 20260906003422 | 23 | 267 | 4.8 | 11.3 | 0.00 | 0.00 | 0.00 | 50 | 1011.9 |
| 20260906003351 | 23 | 285 | 4.8 | 11.3 | 0.00 | 0.00 | 0.00 | 50 | 1011.9 |
| 20260906003253 | 23 | 300 | 6.4 | 11.3 | 0.00 | 0.00 | 0.00 | 50 | 1011.8 |
| 20260906002944 | 23 | 246 | 6.4 | 11.3 | 0.00 | 0.00 | 0.00 | 50 | 1011.9 |
| 20260906002435 | 23 | 217 | 6.4 | 12.9 | 0.00 | 0.00 | 0.00 | 50 | 1011.9 |
| 20260906002342 | 23 | 206 | 6.4 | 12.9 | 0.00 | 0.00 | 0.00 | 50 | 1011.8 |
| 20260906002306 | 23 | 223 | 6.4 | 12.9 | 0.00 | 0.00 | 0.00 | 50 | 1011.9 |
| 20260906002202 | 23 | 253 | 6.4 | 12.9 | 0.00 | 0.00 | 0.00 | 50 | 1011.9 |
| 20260906002104 | 23 | 235 | 6.4 | 12.9 | 0.00 | 0.00 | 0.00 | 50 | 1012.0 |
| 20260906002009 | 23 | 242 | 4.8 | 12.9 | 0.00 | 0.00 | 0.00 | 50 | 1012.1 |
| 20260906001642 | 23 | 253 | 1.6 | 11.3 | 0.00 | 0.00 | 0.00 | 50 | 1012.1 |
| 20260906000850 | 23 | 248 | 0.0 | 6.4 | 0.00 | 0.00 | 0.00 | 49 | 1012.0 |
| 20260906000632 | 23 | 265 | 0.0 | 6.4 | 0.00 | 0.00 | 0.00 | 49 | 1012.0 |
| 20260906000433 | 23 | 256 | 1.6 | 9.7 | 0.00 | 0.00 | 0.00 | 49 | 1012.0 |
| 20260906000333 | 23 | 251 | 1.6 | 9.7 | 0.00 | 0.00 | 0.00 | 49 | 1012.0 |
| 20260906000233 | 23 | 262 | 3.2 | 9.7 | 0.00 | 0.00 | 0.00 | 49 | 1011.9 |
| 20260906000030 | 23 | 278 | 3.2 | 9.7 | 0.00 | 0.00 | 0.00 | 48 | 1011.9 |
| 20260905235830 | 23 | 238 | 3.2 | 9.7 | 0.00 | 0.00 | 0.00 | 48 | 1011.9 |
| 20260905235627 | 23 | 235 | 3.2 | 9.7 | 0.00 | 0.00 | 0.00 | 48 | 1011.9 |
| 20260905235428 | 23 | 227 | 1.6 | 9.7 | 0.00 | 0.00 | 0.00 | 48 | 1011.9 |
| 20260905235330 | 23 | 229 | 1.6 | 9.7 | 0.00 | 0.00 | 0.00 | 48 | 1011.9 |
| 20260905235248 | 23 | 232 | 1.6 | 9.7 | 0.00 | 0.00 | 0.00 | 48 | 1011.9 |
| 20260905235144 | 23 | 251 | 1.6 | 12.9 | 0.00 | 0.00 | 0.00 | 48 | 1012.1 |
| 20260905234835 | 23 | 219 | 3.2 | 12.9 | 0.00 | 0.00 | 0.00 | 48 | 1012.0 |
| 20260905234738 | 23 | 248 | 3.2 | 12.9 | 0.00 | 0.00 | 0.00 | 48 | 1012.0 |
| 20260905234645 | 23 | 250 | 4.8 | 12.9 | 0.00 | 0.00 | 0.00 | 48 | 1011.9 |
| 20260905234618 | 23 | 234 | 4.8 | 12.9 | 0.00 | 0.00 | 0.00 | 48 | 1011.9 |
| 20260905233841 | 23 | 216 | 3.2 | 8.0 | 0.00 | 0.00 | 0.00 | 48 | 1011.9 |
| 20260905233821 | 23 | 205 | 3.2 | 8.0 | 0.00 | 0.00 | 0.00 | 48 | 1011.8 |
| 20260905233621 | 23 | 231 | 3.2 | 11.3 | 0.00 | 0.00 | 0.00 | 48 | 1011.9 |
| 20260905233418 | 23 | 236 | 3.2 | 11.3 | 0.00 | 0.00 | 0.00 | 48 | 1011.9 |
| 20260905233331 | 23 | 238 | 3.2 | 12.9 | 0.00 | 0.00 | 0.00 | 49 | 1011.9 |
| 20260905233219 | 23 | 230 | 4.8 | 12.9 | 0.00 | 0.00 | 0.00 | 49 | 1011.9 |
| 20260905233015 | 23 | 245 | 4.8 | 12.9 | 0.00 | 0.00 | 0.00 | 49 | 1012.0 |
| 20260905232844 | 23 | 235 | 4.8 | 12.9 | 0.00 | 0.00 | 0.00 | 49 | 1012.0 |
| 20260905232826 | 23 | 243 | 4.8 | 12.9 | 0.00 | 0.00 | 0.00 | 49 | 1012.0 |
| 20260905232725 | 23 | 272 | 4.8 | 12.9 | 0.00 | 0.00 | 0.00 | 49 | 1012.0 |
| 20260905232333 | 23 | 228 | 3.2 | 11.3 | 0.00 | 0.00 | 0.00 | 49 | 1012.0 |
| 20260905232221 | 23 | 261 | 3.2 | 11.3 | 0.00 | 0.00 | 0.00 | 48 | 1012.0 |
| 20260905232119 | 23 | 268 | 3.2 | 11.3 | 0.00 | 0.00 | 0.00 | 48 | 1012.0 |
| 20260905232038 | 23 | 241 | 3.2 | 11.3 | 0.00 | 0.00 | 0.00 | 48 | 1012.0 |
| 20260905231657 | 23 | 248 | 3.2 | 11.3 | 0.00 | 0.00 | 0.00 | 48 | 1011.9 |
| 20260905231603 | 23 | 242 | 3.2 | 11.3 | 0.00 | 0.00 | 0.00 | 48 | 1012.0 |
| 20260905231209 | 23 | 269 | 3.2 | 12.9 | 0.00 | 0.00 | 0.00 | 48 | 1012.0 |
| 20260905231109 | 24 | 267 | 3.2 | 12.9 | 0.00 | 0.00 | 0.00 | 47 | 1011.9 |
| 20260905231026 | 24 | 264 | 3.2 | 12.9 | 0.00 | 0.00 | 0.00 | 47 | 1012.0 |
| 20260905231001 | 24 | 277 | 3.2 | 12.9 | 0.00 | 0.00 | 0.00 | 47 | 1011.9 |
| 20260905230603 | 24 | 231 | 3.2 | 12.9 | 0.00 | 0.00 | 0.00 | 47 | 1012.0 |
| 20260905230232 | 24 | 247 | 3.2 | 11.3 | 0.00 | 0.00 | 0.00 | 47 | 1012.0 |
| 20260905230132 | 24 | 223 | 3.2 | 9.7 | 0.00 | 0.00 | 0.00 | 47 | 1012.0 |
| 20260905225821 | 24 | 250 | 3.2 | 9.7 | 0.00 | 0.00 | 0.00 | 47 | 1012.1 |
| 20260905225722 | 24 | 257 | 3.2 | 8.0 | 0.00 | 0.00 | 0.00 | 46 | 1012.1 |
| 20260905225627 | 24 | 265 | 4.8 | 11.3 | 0.00 | 0.00 | 0.00 | 46 | 1012.0 |
| 20260905225606 | 24 | 228 | 4.8 | 11.3 | 0.00 | 0.00 | 0.00 | 46 | 1012.0 |
| 20260905224832 | 24 | 218 | 4.8 | 11.3 | 0.00 | 0.00 | 0.00 | 47 | 1012.0 |
| 20260905224807 | 24 | 247 | 4.8 | 11.3 | 0.00 | 0.00 | 0.00 | 47 | 1012.0 |
| 20260905224613 | 24 | 207 | 4.8 | 11.3 | 0.00 | 0.00 | 0.00 | 47 | 1012.0 |
| 20260905224407 | 24 | 234 | 4.8 | 11.3 | 0.00 | 0.00 | 0.00 | 47 | 1012.0 |
| 20260905224332 | 24 | 219 | 4.8 | 11.3 | 0.00 | 0.00 | 0.00 | 47 | 1012.0 |
| 20260905224208 | 24 | 234 | 3.2 | 11.3 | 0.00 | 0.00 | 0.00 | 47 | 1012.0 |
| 20260905224009 | 24 | 203 | 3.2 | 11.3 | 0.00 | 0.00 | 0.00 | 47 | 1012.0 |
| 20260905223832 | 24 | 266 | 4.8 | 11.3 | 0.00 | 0.00 | 0.00 | 46 | 1012.0 |
| 20260905223808 | 24 | 249 | 4.8 | 9.7 | 0.00 | 0.00 | 0.00 | 46 | 1012.0 |
| 20260905223608 | 24 | 257 | 4.8 | 9.7 | 0.00 | 0.00 | 0.00 | 46 | 1012.1 |
| 20260905223436 | 25 | 260 | 4.8 | 9.7 | 0.00 | 0.00 | 0.00 | 46 | 1012.0 |
| 20260905223413 | 25 | 222 | 4.8 | 9.7 | 0.00 | 0.00 | 0.00 | 46 | 1012.0 |
| 20260905223334 | 25 | 261 | 4.8 | 9.7 | 0.00 | 0.00 | 0.00 | 45 | 1012.1 |
| 20260905223230 | 25 | 257 | 4.8 | 11.3 | 0.00 | 0.00 | 0.00 | 45 | 1012.0 |
| 20260905222918 | 25 | 266 | 4.8 | 11.3 | 0.00 | 0.00 | 0.00 | 45 | 1012.0 |
| 20260905222816 | 25 | 271 | 4.8 | 11.3 | 0.00 | 0.00 | 0.00 | 45 | 1012.0 |
| 20260905222457 | 25 | 234 | 4.8 | 11.3 | 0.00 | 0.00 | 0.00 | 45 | 1012.0 |
| 20260905222006 | 25 | 236 | 4.8 | 9.7 | 0.00 | 0.00 | 0.00 | 44 | 1012.1 |
| 20260905221834 | 25 | 186 | 4.8 | 9.7 | 0.00 | 0.00 | 0.00 | 44 | 1012.0 |
| 20260905221807 | 25 | 238 | 4.8 | 9.7 | 0.00 | 0.00 | 0.00 | 44 | 1012.1 |
| 20260905221605 | 25 | 211 | 4.8 | 9.7 | 0.00 | 0.00 | 0.00 | 44 | 1012.1 |
| 20260905221407 | 25 | 217 | 4.8 | 9.7 | 0.00 | 0.00 | 0.00 | 44 | 1012.1 |
| 20260905221332 | 25 | 237 | 4.8 | 9.7 | 0.00 | 0.00 | 0.00 | 44 | 1012.1 |
| 20260905221208 | 25 | 249 | 4.8 | 11.3 | 0.00 | 0.00 | 0.00 | 44 | 1012.0 |
| 20260905221008 | 25 | 194 | 4.8 | 11.3 | 0.00 | 0.00 | 0.00 | 44 | 1012.0 |
| 20260905220832 | 25 | 243 | 4.8 | 11.3 | 0.00 | 0.00 | 0.00 | 44 | 1012.0 |
| 20260905220808 | 25 | 214 | 4.8 | 11.3 | 0.00 | 0.00 | 0.00 | 44 | 1012.0 |
| 20260905220657 | 25 | 248 | 6.4 | 14.5 | 0.00 | 0.00 | 0.00 | 44 | 1012.1 |
| 20260905220559 | 25 | 205 | 6.4 | 14.5 | 0.00 | 0.00 | 0.00 | 44 | 1012.0 |
| 20260905220206 | 25 | 238 | 6.4 | 14.5 | 0.00 | 0.00 | 0.00 | 44 | 1012.0 |
| 20260905220008 | 25 | 225 | 6.4 | 14.5 | 0.00 | 0.00 | 0.00 | 44 | 1011.9 |
| 20260905215834 | 25 | 225 | 6.4 | 14.5 | 0.00 | 0.00 | 0.00 | 44 | 1011.9 |
| 20260905215808 | 25 | 215 | 6.4 | 14.5 | 0.00 | 0.00 | 0.00 | 44 | 1011.9 |
| 20260905215607 | 25 | 232 | 4.8 | 14.5 | 0.00 | 0.00 | 0.00 | 44 | 1012.0 |
| 20260905215407 | 25 | 209 | 4.8 | 12.9 | 0.00 | 0.00 | 0.00 | 44 | 1012.0 |
| 20260905215331 | 25 | 234 | 4.8 | 12.9 | 0.00 | 0.00 | 0.00 | 44 | 1012.0 |
| 20260905215206 | 25 | 223 | 4.8 | 12.9 | 0.00 | 0.00 | 0.00 | 44 | 1012.1 |
| 20260905215007 | 25 | 208 | 4.8 | 12.9 | 0.00 | 0.00 | 0.00 | 44 | 1012.1 |
| 20260905214834 | 25 | 249 | 4.8 | 12.9 | 0.00 | 0.00 | 0.00 | 44 | 1012.0 |
| 20260905214809 | 25 | 259 | 4.8 | 14.5 | 0.00 | 0.00 | 0.00 | 44 | 1012.0 |
| 20260905214635 | 25 | 265 | 6.4 | 14.5 | 0.00 | 0.00 | 0.00 | 44 | 1012.0 |
| 20260905214541 | 25 | 269 | 6.4 | 14.5 | 0.00 | 0.00 | 0.00 | 44 | 1011.9 |
| 20260905214521 | 25 | 245 | 6.4 | 14.5 | 0.00 | 0.00 | 0.00 | 44 | 1011.9 |
| 20260905214123 | 25 | 201 | 6.4 | 14.5 | 0.00 | 0.00 | 0.00 | 44 | 1011.9 |
| 20260905213808 | 25 | 230 | 4.8 | 12.9 | 0.00 | 0.00 | 0.00 | 44 | 1012.0 |
| 20260905213617 | 25 | 232 | 4.8 | 12.9 | 0.00 | 0.00 | 0.00 | 44 | 1012.0 |
| 20260905213521 | 25 | 243 | 4.8 | 12.9 | 0.00 | 0.00 | 0.00 | 45 | 1012.2 |
| 20260905213501 | 25 | 209 | 4.8 | 12.9 | 0.00 | 0.00 | 0.00 | 45 | 1012.2 |
| 20260905213021 | 25 | 239 | 3.2 | 12.9 | 0.00 | 0.00 | 0.00 | 45 | 1012.2 |
| 20260905212940 | 25 | 205 | 3.2 | 12.9 | 0.00 | 0.00 | 0.00 | 45 | 1012.3 |
| 20260905212919 | 25 | 229 | 3.2 | 12.9 | 0.00 | 0.00 | 0.00 | 45 | 1012.3 |
| 20260905212826 | 25 | 255 | 3.2 | 12.9 | 0.00 | 0.00 | 0.00 | 45 | 1012.3 |
| 20260905212500 | 25 | 233 | 1.6 | 12.9 | 0.00 | 0.00 | 0.00 | 45 | 1012.2 |
| 20260905212421 | 25 | 274 | 3.2 | 9.7 | 0.00 | 0.00 | 0.00 | 45 | 1012.3 |
| 20260905212037 | 25 | 224 | 3.2 | 9.7 | 0.00 | 0.00 | 0.00 | 44 | 1012.3 |
| 20260905212017 | 25 | 236 | 3.2 | 9.7 | 0.00 | 0.00 | 0.00 | 44 | 1012.3 |
| 20260905211332 | 25 | 192 | 4.8 | 12.9 | 0.00 | 0.00 | 0.00 | 44 | 1012.1 |
| 20260905211207 | 25 | 223 | 6.4 | 12.9 | 0.00 | 0.00 | 0.00 | 44 | 1012.0 |
| 20260905211009 | 25 | 207 | 6.4 | 12.9 | 0.00 | 0.00 | 0.00 | 44 | 1012.0 |
| 20260905210809 | 25 | 193 | 8.0 | 12.9 | 0.00 | 0.00 | 0.00 | 44 | 1012.1 |
| 20260905210636 | 25 | 196 | 8.0 | 12.9 | 0.00 | 0.00 | 0.00 | 43 | 1012.1 |
| 20260905210540 | 25 | 196 | 6.4 | 11.3 | 0.00 | 0.00 | 0.00 | 44 | 1012.2 |
| 20260905210521 | 25 | 198 | 6.4 | 11.3 | 0.00 | 0.00 | 0.00 | 44 | 1012.2 |
| 20260905210127 | 26 | 181 | 3.2 | 11.3 | 0.00 | 0.00 | 0.00 | 44 | 1012.3 |
| 20260905205808 | 26 | 192 | 1.6 | 9.7 | 0.00 | 0.00 | 0.00 | 44 | 1012.3 |
| 20260905205607 | 26 | 177 | 1.6 | 9.7 | 0.00 | 0.00 | 0.00 | 44 | 1012.3 |
| 20260905205407 | 26 | 193 | 0.0 | 8.0 | 0.00 | 0.00 | 0.00 | 44 | 1012.2 |
| 20260905205330 | 26 | 211 | 0.0 | 0.0 | 0.00 | 0.00 | 0.00 | 44 | 1012.2 |
| 20260905205213 | 26 | 242 | 0.0 | 0.0 | 0.00 | 0.00 | 0.00 | 44 | 1012.2 |
| 20260905205117 | 26 | 209 | 0.0 | 1.6 | 0.00 | 0.00 | 0.00 | 44 | 1012.3 |
| 20260905205038 | 26 | 230 | 0.0 | 1.6 | 0.00 | 0.00 | 0.00 | 44 | 1012.2 |
| 20260905204611 | 26 | 199 | 1.6 | 12.9 | 0.00 | 0.00 | 0.00 | 44 | 1012.1 |
| 20260905204407 | 26 | 232 | 1.6 | 12.9 | 0.00 | 0.00 | 0.00 | 44 | 1012.1 |
| 20260905204332 | 26 | 232 | 1.6 | 12.9 | 0.00 | 0.00 | 0.00 | 44 | 1012.1 |
| 20260905204218 | 26 | 232 | 1.6 | 12.9 | 0.00 | 0.00 | 0.00 | 44 | 1012.1 |
| 20260905204115 | 26 | 201 | 1.6 | 12.9 | 0.00 | 0.00 | 0.00 | 44 | 1012.1 |
| 20260905204036 | 26 | 230 | 3.2 | 12.9 | 0.00 | 0.00 | 0.00 | 43 | 1012.1 |
| 20260905203613 | 26 | 241 | 1.6 | 14.5 | 0.00 | 0.00 | 0.00 | 43 | 1012.1 |
| 20260905203511 | 26 | 211 | 3.2 | 14.5 | 0.00 | 0.00 | 0.00 | 43 | 1012.0 |
| 20260905203453 | 26 | 218 | 3.2 | 14.5 | 0.00 | 0.00 | 0.00 | 43 | 1012.0 |
| 20260905203004 | 26 | 246 | 4.8 | 14.5 | 0.00 | 0.00 | 0.00 | 43 | 1011.9 |
| 20260905202832 | 26 | 242 | 6.4 | 14.5 | 0.00 | 0.00 | 0.00 | 43 | 1011.9 |
| 20260905202803 | 26 | 243 | 6.4 | 14.5 | 0.00 | 0.00 | 0.00 | 43 | 1011.9 |
| 20260905202600 | 26 | 213 | 6.4 | 12.9 | 0.00 | 0.00 | 0.00 | 43 | 1011.9 |
| 20260905202359 | 26 | 209 | 4.8 | 12.9 | 0.00 | 0.00 | 0.00 | 43 | 1012.0 |
| 20260905202330 | 26 | 218 | 4.8 | 12.9 | 0.00 | 0.00 | 0.00 | 43 | 1011.9 |
| 20260905202156 | 26 | 201 | 4.8 | 12.9 | 0.00 | 0.00 | 0.00 | 43 | 1011.9 |
| 20260905201956 | 26 | 233 | 4.8 | 12.9 | 0.00 | 0.00 | 0.00 | 43 | 1011.9 |
| 20260905201855 | 26 | 223 | 4.8 | 12.9 | 0.00 | 0.00 | 0.00 | 43 | 1011.9 |
| 20260905201829 | 26 | 223 | 4.8 | 12.9 | 0.00 | 0.00 | 0.00 | 43 | 1012.0 |
| 20260905201736 | 26 | 234 | 4.8 | 14.5 | 0.00 | 0.00 | 0.00 | 43 | 1011.9 |
| 20260905201640 | 26 | 221 | 6.4 | 14.5 | 0.00 | 0.00 | 0.00 | 43 | 1011.9 |
| 20260905201623 | 26 | 220 | 6.4 | 14.5 | 0.00 | 0.00 | 0.00 | 43 | 1011.9 |
| 20260905200941 | 26 | 206 | 9.7 | 16.1 | 0.00 | 0.00 | 0.00 | 43 | 1012.0 |
| 20260905200913 | 26 | 238 | 9.7 | 16.1 | 0.00 | 0.00 | 0.00 | 43 | 1012.0 |
| 20260905200826 | 26 | 212 | 9.7 | 16.1 | 0.00 | 0.00 | 0.00 | 43 | 1012.0 |
| 20260905200500 | 26 | 239 | 9.7 | 16.1 | 0.00 | 0.00 | 0.00 | 43 | 1012.0 |
| 20260905200407 | 26 | 236 | 9.7 | 14.5 | 0.00 | 0.00 | 0.00 | 43 | 1011.9 |
| 20260905200310 | 26 | 233 | 8.0 | 14.5 | 0.00 | 0.00 | 0.00 | 43 | 1012.0 |
| 20260905200233 | 26 | 217 | 8.0 | 14.5 | 0.00 | 0.00 | 0.00 | 43 | 1011.9 |
| 20260905195555 | 26 | 251 | 6.4 | 14.5 | 0.00 | 0.00 | 0.00 | 43 | 1011.9 |
| 20260905195148 | 26 | 265 | 6.4 | 14.5 | 0.00 | 0.00 | 0.00 | 43 | 1011.9 |
| 20260905194946 | 26 | 227 | 6.4 | 14.5 | 0.00 | 0.00 | 0.00 | 43 | 1011.9 |
| 20260905194832 | 26 | 214 | 6.4 | 14.5 | 0.00 | 0.00 | 0.00 | 43 | 1011.9 |
| 20260905194746 | 26 | 245 | 6.4 | 14.5 | 0.00 | 0.00 | 0.00 | 43 | 1011.8 |
| 20260905194604 | 26 | 261 | 8.0 | 16.1 | 0.00 | 0.00 | 0.00 | 43 | 1011.8 |
| 20260905194508 | 26 | 255 | 8.0 | 16.1 | 0.00 | 0.00 | 0.00 | 43 | 1011.9 |
| 20260905194454 | 26 | 252 | 8.0 | 16.1 | 0.00 | 0.00 | 0.00 | 43 | 1011.9 |
| 20260905194406 | 26 | 236 | 8.0 | 16.1 | 0.00 | 0.00 | 0.00 | 43 | 1011.9 |
| 20260905194029 | 26 | 244 | 8.0 | 17.7 | 0.00 | 0.00 | 0.00 | 43 | 1011.8 |
| 20260905193548 | 26 | 236 | 8.0 | 17.7 | 0.00 | 0.00 | 0.00 | 43 | 1011.9 |
| 20260905193347 | 26 | 232 | 8.0 | 17.7 | 0.00 | 0.00 | 0.00 | 43 | 1011.9 |
| 20260905193331 | 26 | 216 | 8.0 | 17.7 | 0.00 | 0.00 | 0.00 | 43 | 1011.9 |
| 20260905193146 | 26 | 203 | 8.0 | 17.7 | 0.00 | 0.00 | 0.00 | 43 | 1011.8 |
| 20260905192948 | 26 | 200 | 8.0 | 17.7 | 0.00 | 0.00 | 0.00 | 43 | 1011.9 |
| 20260905192832 | 26 | 239 | 6.4 | 16.1 | 0.00 | 0.00 | 0.00 | 43 | 1011.8 |
| 20260905192751 | 26 | 259 | 6.4 | 16.1 | 0.00 | 0.00 | 0.00 | 43 | 1011.8 |
| 20260905192656 | 26 | 244 | 6.4 | 16.1 | 0.00 | 0.00 | 0.00 | 43 | 1011.9 |
| 20260905192331 | 26 | 264 | 6.4 | 16.1 | 0.00 | 0.00 | 0.00 | 43 | 1011.8 |
| 20260905192149 | 26 | 247 | 6.4 | 16.1 | 0.00 | 0.00 | 0.00 | 43 | 1011.8 |
| 20260905191936 | 26 | 236 | 6.4 | 16.1 | 0.00 | 0.00 | 0.00 | 43 | 1011.8 |
| 20260905191830 | 26 | 209 | 6.4 | 16.1 | 0.00 | 0.00 | 0.00 | 43 | 1011.9 |
| 20260905191738 | 26 | 193 | 6.4 | 16.1 | 0.00 | 0.00 | 0.00 | 43 | 1011.9 |
| 20260905191537 | 26 | 251 | 6.4 | 14.5 | 0.00 | 0.00 | 0.00 | 43 | 1011.9 |
| 20260905191341 | 26 | 235 | 6.4 | 14.5 | 0.00 | 0.00 | 0.00 | 43 | 1011.9 |
| 20260905191331 | 26 | 230 | 6.4 | 14.5 | 0.00 | 0.00 | 0.00 | 43 | 1011.9 |
| 20260905191137 | 26 | 199 | 6.4 | 14.5 | 0.00 | 0.00 | 0.00 | 43 | 1011.9 |
| 20260905190935 | 27 | 238 | 6.4 | 12.9 | 0.00 | 0.00 | 0.00 | 43 | 1011.9 |
| 20260905190835 | 27 | 240 | 6.4 | 12.9 | 0.00 | 0.00 | 0.00 | 43 | 1011.9 |
| 20260905190755 | 27 | 244 | 6.4 | 14.5 | 0.00 | 0.00 | 0.00 | 43 | 1011.9 |
| 20260905190703 | 27 | 199 | 8.0 | 14.5 | 0.00 | 0.00 | 0.00 | 43 | 1011.9 |
| 20260905190600 | 27 | 196 | 8.0 | 14.5 | 0.00 | 0.00 | 0.00 | 43 | 1011.9 |
| 20260905190247 | 27 | 213 | 8.0 | 14.5 | 0.00 | 0.00 | 0.00 | 43 | 1011.9 |
| 20260905190148 | 27 | 221 | 9.7 | 14.5 | 0.00 | 0.00 | 0.00 | 43 | 1011.8 |
| 20260905190120 | 27 | 217 | 9.7 | 16.1 | 0.00 | 0.00 | 0.00 | 43 | 1011.8 |
| 20260905190054 | 27 | 236 | 9.7 | 16.1 | 0.00 | 0.00 | 0.00 | 43 | 1011.9 |
| 20260905185444 | 27 | 242 | 9.7 | 17.7 | 0.00 | 0.00 | 0.00 | 43 | 1011.9 |
| 20260905184935 | 27 | 207 | 9.7 | 17.7 | 0.00 | 0.00 | 0.00 | 43 | 1011.7 |
| 20260905184831 | 27 | 241 | 9.7 | 17.7 | 0.00 | 0.00 | 0.00 | 43 | 1011.8 |
| 20260905184736 | 27 | 221 | 9.7 | 17.7 | 0.00 | 0.00 | 0.00 | 43 | 1011.7 |
| 20260905184536 | 27 | 255 | 9.7 | 17.7 | 0.00 | 0.00 | 0.00 | 43 | 1011.8 |
| 20260905184334 | 27 | 232 | 9.7 | 17.7 | 0.00 | 0.00 | 0.00 | 44 | 1011.7 |
| 20260905184135 | 27 | 267 | 9.7 | 17.7 | 0.00 | 0.00 | 0.00 | 44 | 1011.7 |
| 20260905183935 | 27 | 238 | 9.7 | 17.7 | 0.00 | 0.00 | 0.00 | 44 | 1011.7 |
| 20260905183832 | 27 | 232 | 9.7 | 17.7 | 0.00 | 0.00 | 0.00 | 44 | 1011.7 |
| 20260905183737 | 27 | 217 | 9.7 | 17.7 | 0.00 | 0.00 | 0.00 | 44 | 1011.6 |
| 20260905183535 | 27 | 241 | 9.7 | 17.7 | 0.00 | 0.00 | 0.00 | 44 | 1011.6 |
| 20260905183335 | 27 | 242 | 8.0 | 17.7 | 0.00 | 0.00 | 0.00 | 44 | 1011.7 |
| 20260905183212 | 27 | 240 | 8.0 | 17.7 | 0.00 | 0.00 | 0.00 | 44 | 1011.6 |
| 20260905183109 | 27 | 240 | 8.0 | 17.7 | 0.00 | 0.00 | 0.00 | 44 | 1011.6 |
| 20260905182734 | 27 | 268 | 8.0 | 17.7 | 0.00 | 0.00 | 0.00 | 44 | 1011.6 |
| 20260905182535 | 27 | 232 | 8.0 | 17.7 | 0.00 | 0.00 | 0.00 | 44 | 1011.6 |
| 20260905182334 | 27 | 220 | 8.0 | 17.7 | 0.00 | 0.00 | 0.00 | 44 | 1011.6 |
| 20260905182136 | 27 | 236 | 8.0 | 17.7 | 0.00 | 0.00 | 0.00 | 44 | 1011.6 |
| 20260905181935 | 27 | 205 | 8.0 | 17.7 | 0.00 | 0.00 | 0.00 | 44 | 1011.5 |
| 20260905181833 | 27 | 207 | 8.0 | 17.7 | 0.00 | 0.00 | 0.00 | 44 | 1011.5 |
| 20260905181735 | 27 | 250 | 8.0 | 17.7 | 0.00 | 0.00 | 0.00 | 44 | 1011.6 |
| 20260905181533 | 27 | 218 | 8.0 | 17.7 | 0.00 | 0.00 | 0.00 | 44 | 1011.6 |
| 20260905181335 | 27 | 217 | 9.7 | 17.7 | 0.00 | 0.00 | 0.00 | 44 | 1011.5 |
| 20260905181146 | 27 | 198 | 9.7 | 17.7 | 0.00 | 0.00 | 0.00 | 44 | 1011.5 |
| 20260905181046 | 27 | 233 | 9.7 | 17.7 | 0.00 | 0.00 | 0.00 | 44 | 1011.5 |
| 20260905181014 | 27 | 211 | 9.7 | 17.7 | 0.00 | 0.00 | 0.00 | 44 | 1011.5 |
| 20260905180628 | 27 | 225 | 9.7 | 16.1 | 0.00 | 0.00 | 0.00 | 44 | 1011.5 |
| 20260905180522 | 27 | 194 | 9.7 | 16.1 | 0.00 | 0.00 | 0.00 | 44 | 1011.5 |
| 20260905180115 | 28 | 262 | 8.0 | 14.5 | 0.00 | 0.00 | 0.00 | 44 | 1011.5 |
| 20260905175736 | 28 | 263 | 8.0 | 14.5 | 0.00 | 0.00 | 0.00 | 44 | 1011.4 |
| 20260905175536 | 28 | 230 | 8.0 | 14.5 | 0.00 | 0.00 | 0.00 | 44 | 1011.4 |
| 20260905175335 | 28 | 242 | 8.0 | 16.1 | 0.00 | 0.00 | 0.00 | 44 | 1011.4 |
| 20260905175153 | 28 | 239 | 8.0 | 16.1 | 0.00 | 0.00 | 0.00 | 44 | 1011.4 |
| 20260905175054 | 28 | 234 | 8.0 | 16.1 | 0.00 | 0.00 | 0.00 | 44 | 1011.4 |
| 20260905175019 | 28 | 228 | 8.0 | 16.1 | 0.00 | 0.00 | 0.00 | 44 | 1011.4 |
| 20260905174946 | 28 | 225 | 8.0 | 16.1 | 0.00 | 0.00 | 0.00 | 44 | 1011.4 |
| 20260905174334 | 28 | 235 | 4.8 | 14.5 | 0.00 | 0.00 | 0.00 | 44 | 1011.3 |
| 20260905174144 | 28 | 228 | 3.2 | 14.5 | 0.00 | 0.00 | 0.00 | 44 | 1011.3 |
| 20260905174048 | 28 | 204 | 3.2 | 12.9 | 0.00 | 0.00 | 0.00 | 44 | 1011.3 |
| 20260905174016 | 28 | 204 | 1.6 | 11.3 | 0.00 | 0.00 | 0.00 | 44 | 1011.3 |
| 20260905173535 | 28 | 236 | 3.2 | 11.3 | 0.00 | 0.00 | 0.00 | 44 | 1011.3 |
| 20260905173336 | 28 | 211 | 3.2 | 11.3 | 0.00 | 0.00 | 0.00 | 44 | 1011.3 |
| 20260905173135 | 28 | 224 | 3.2 | 11.3 | 0.00 | 0.00 | 0.00 | 44 | 1011.2 |
| 20260905172935 | 28 | 254 | 4.8 | 12.9 | 0.00 | 0.00 | 0.00 | 44 | 1011.2 |
| 20260905172832 | 28 | 231 | 4.8 | 12.9 | 0.00 | 0.00 | 0.00 | 44 | 1011.2 |
| 20260905172734 | 28 | 254 | 4.8 | 12.9 | 0.00 | 0.00 | 0.00 | 44 | 1011.2 |
| 20260905172547 | 28 | 201 | 4.8 | 12.9 | 0.00 | 0.00 | 0.00 | 44 | 1011.2 |
| 20260905172439 | 28 | 230 | 4.8 | 12.9 | 0.00 | 0.00 | 0.00 | 44 | 1011.2 |
| 20260905171936 | 28 | 201 | 4.8 | 12.9 | 0.00 | 0.00 | 0.00 | 44 | 1011.1 |
| 20260905171831 | 28 | 221 | 3.2 | 11.3 | 0.00 | 0.00 | 0.00 | 44 | 1011.1 |
| 20260905171737 | 28 | 260 | 3.2 | 11.3 | 0.00 | 0.00 | 0.00 | 45 | 1011.1 |
| 20260905171534 | 29 | 203 | 3.2 | 11.3 | 0.00 | 0.00 | 0.00 | 45 | 1011.1 |
| 20260905171336 | 29 | 244 | 1.6 | 11.3 | 0.00 | 0.00 | 0.00 | 44 | 1011.0 |
| 20260905171135 | 29 | 266 | 1.6 | 11.3 | 0.00 | 0.00 | 0.00 | 45 | 1011.0 |
| 20260905170935 | 29 | 261 | 1.6 | 11.3 | 0.00 | 0.00 | 0.00 | 45 | 1011.1 |
| 20260905170826 | 29 | 254 | 1.6 | 11.3 | 0.00 | 0.00 | 0.00 | 45 | 1011.0 |
| 20260905170735 | 29 | 259 | 1.6 | 11.3 | 0.00 | 0.00 | 0.00 | 45 | 1011.0 |
| 20260905170536 | 29 | 266 | 1.6 | 6.4 | 0.00 | 0.00 | 0.00 | 45 | 1011.0 |
| 20260905170337 | 29 | 255 | 1.6 | 6.4 | 0.00 | 0.00 | 0.00 | 44 | 1011.0 |
| 20260905170321 | 29 | 257 | 1.6 | 6.4 | 0.00 | 0.00 | 0.00 | 44 | 1011.0 |
| 20260905170134 | 30 | 280 | 1.6 | 6.4 | 0.00 | 0.00 | 0.00 | 44 | 1011.0 |
| 20260905165934 | 30 | 286 | 1.6 | 4.8 | 0.00 | 0.00 | 0.00 | 44 | 1011.0 |
| 20260905165818 | 30 | 288 | 0.0 | 4.8 | 0.00 | 0.00 | 0.00 | 44 | 1010.9 |
| 20260905165738 | 30 | 275 | 0.0 | 4.8 | 0.00 | 0.00 | 0.00 | 44 | 1010.9 |
| 20260905165641 | 30 | 281 | 0.0 | 4.8 | 0.00 | 0.00 | 0.00 | 43 | 1010.9 |
| 20260905165534 | 30 | 281 | 0.0 | 4.8 | 0.00 | 0.00 | 0.00 | 43 | 1011.0 |
| 20260905165147 | 30 | 281 | 0.0 | 4.8 | 0.00 | 0.00 | 0.00 | 43 | 1011.0 |
| 20260905165111 | 30 | 281 | 0.0 | 4.8 | 0.00 | 0.00 | 0.00 | 43 | 1011.0 |
| 20260905164328 | 30 | 271 | 0.0 | 0.0 | 0.00 | 0.00 | 0.00 | 42 | 1010.9 |
| 20260905164239 | 31 | 271 | 0.0 | 0.0 | 0.00 | 0.00 | 0.00 | 41 | 1010.8 |
| 20260905163817 | 31 | 288 | 0.0 | 0.0 | 0.00 | 0.00 | 0.00 | 41 | 1010.9 |
| 20260905163733 | 31 | 288 | 0.0 | 6.4 | 0.00 | 0.00 | 0.00 | 41 | 1010.9 |
| 20260905163634 | 31 | 295 | 0.0 | 8.0 | 0.00 | 0.00 | 0.00 | 40 | 1010.9 |
| 20260905163317 | 31 | 287 | 0.0 | 8.0 | 0.00 | 0.00 | 0.00 | 40 | 1010.9 |
| 20260905163130 | 31 | 296 | 0.0 | 8.0 | 0.00 | 0.00 | 0.00 | 40 | 1010.9 |
| 20260905162959 | 32 | 321 | 0.0 | 8.0 | 0.00 | 0.00 | 0.00 | 39 | 1010.9 |
| 20260905162922 | 32 | 302 | 0.0 | 8.0 | 0.00 | 0.00 | 0.00 | 39 | 1010.9 |
| 20260905162852 | 32 | 296 | 0.0 | 8.0 | 0.00 | 0.00 | 0.00 | 39 | 1010.9 |
| 20260905162805 | 32 | 332 | 0.0 | 3.2 | 0.00 | 0.00 | 0.00 | 38 | 1010.9 |
| 20260905162707 | 32 | 347 | 0.0 | 3.2 | 0.00 | 0.00 | 0.00 | 38 | 1010.9 |
| 20260905162408 | 32 | 347 | 0.0 | 3.2 | 0.00 | 0.00 | 0.00 | 38 | 1010.9 |
| 20260905162029 | 32 | 351 | 0.0 | 3.2 | 0.00 | 0.00 | 0.00 | 38 | 1010.9 |
| 20260905162006 | 32 | 351 | 0.0 | 3.2 | 0.00 | 0.00 | 0.00 | 38 | 1010.9 |
| 20260905161920 | 32 | 331 | 0.0 | 3.2 | 0.00 | 0.00 | 0.00 | 38 | 1010.9 |
| 20260905161605 | 33 | 351 | 0.0 | 1.6 | 0.00 | 0.00 | 0.00 | 38 | 1010.9 |
| 20260905161525 | 33 | 336 | 0.0 | 1.6 | 0.00 | 0.00 | 0.00 | 38 | 1010.9 |
| 20260905161432 | 33 | 30 | 0.0 | 0.0 | 0.00 | 0.00 | 0.00 | 38 | 1010.9 |
| 20260905161125 | 32 | 36 | 0.0 | 1.6 | 0.00 | 0.00 | 0.00 | 38 | 1011.0 |
| 20260905160125 | 33 | 15 | 1.6 | 8.0 | 0.00 | 0.00 | 0.00 | 37 | 1011.0 |
| 20260905155924 | 33 | 15 | 1.6 | 8.0 | 0.00 | 0.00 | 0.00 | 37 | 1011.0 |
| 20260905155814 | 33 | 338 | 1.6 | 9.7 | 0.00 | 0.00 | 0.00 | 37 | 1011.0 |
| 20260905155728 | 33 | 324 | 1.6 | 9.7 | 0.00 | 0.00 | 0.00 | 37 | 1011.0 |
| 20260905155633 | 33 | 332 | 1.6 | 9.7 | 0.00 | 0.00 | 0.00 | 37 | 1011.0 |
| 20260905155539 | 33 | 1 | 1.6 | 9.7 | 0.00 | 0.00 | 0.00 | 37 | 1010.9 |
| 20260905155201 | 33 | 351 | 1.6 | 9.7 | 0.00 | 0.00 | 0.00 | 36 | 1011.0 |
| 20260905155104 | 33 | 338 | 0.0 | 9.7 | 0.00 | 0.00 | 0.00 | 36 | 1011.0 |
| 20260905154724 | 33 | 351 | 0.0 | 4.8 | 0.00 | 0.00 | 0.00 | 36 | 1010.9 |
| 20260905154528 | 33 | 24 | 0.0 | 4.8 | 0.00 | 0.00 | 0.00 | 36 | 1011.0 |
| 20260905154426 | 33 | 51 | 0.0 | 4.8 | 0.00 | 0.00 | 0.00 | 36 | 1011.0 |
| 20260905154409 | 33 | 33 | 0.0 | 4.8 | 0.00 | 0.00 | 0.00 | 36 | 1011.0 |
| 20260905154316 | 33 | 5 | 0.0 | 4.8 | 0.00 | 0.00 | 0.00 | 36 | 1010.9 |
| 20260905154225 | 33 | 325 | 0.0 | 6.4 | 0.00 | 0.00 | 0.00 | 36 | 1011.0 |
| 20260905154150 | 33 | 29 | 0.0 | 6.4 | 0.00 | 0.00 | 0.00 | 36 | 1011.0 |
| 20260905154130 | 33 | 28 | 0.0 | 6.4 | 0.00 | 0.00 | 0.00 | 36 | 1011.0 |
| 20260905154034 | 34 | 38 | 0.0 | 8.0 | 0.00 | 0.00 | 0.00 | 36 | 1010.9 |
| 20260905153431 | 34 | 22 | 0.0 | 8.0 | 0.00 | 0.00 | 0.00 | 35 | 1010.9 |
| 20260905153101 | 34 | 351 | 0.0 | 8.0 | 0.00 | 0.00 | 0.00 | 35 | 1010.9 |
| 20260905152733 | 34 | 351 | 0.0 | 8.0 | 0.00 | 0.00 | 0.00 | 34 | 1010.9 |
| 20260905152425 | 34 | 11 | 0.0 | 3.2 | 0.00 | 0.00 | 0.00 | 34 | 1011.0 |
| 20260905151918 | 35 | 33 | 0.0 | 3.2 | 0.00 | 0.00 | 0.00 | 34 | 1011.0 |
| 20260905151813 | 35 | 35 | 0.0 | 0.0 | 0.00 | 0.00 | 0.00 | 34 | 1011.0 |
| 20260905151719 | 35 | 59 | 0.0 | 0.0 | 0.00 | 0.00 | 0.00 | 34 | 1010.9 |
| 20260905151519 | 35 | 59 | 0.0 | 0.0 | 0.00 | 0.00 | 0.00 | 33 | 1010.9 |
| 20260905151316 | 35 | 31 | 0.0 | 3.2 | 0.00 | 0.00 | 0.00 | 33 | 1011.0 |
| 20260905151224 | 35 | 30 | 0.0 | 3.2 | 0.00 | 0.00 | 0.00 | 33 | 1011.0 |
| 20260905151128 | 35 | 15 | 0.0 | 3.2 | 0.00 | 0.00 | 0.00 | 33 | 1011.0 |
| 20260905151056 | 35 | 33 | 0.0 | 3.2 | 0.00 | 0.00 | 0.00 | 33 | 1011.0 |
| 20260905150313 | 35 | 35 | 0.0 | 3.2 | 0.00 | 0.00 | 0.00 | 32 | 1010.9 |
| 20260905150220 | 35 | 88 | 0.0 | 3.2 | 0.00 | 0.00 | 0.00 | 32 | 1010.9 |
| 20260905145805 | 35 | 37 | 0.0 | 6.4 | 0.00 | 0.00 | 0.00 | 32 | 1011.0 |
| 20260905145718 | 34 | 51 | 0.0 | 6.4 | 0.00 | 0.00 | 0.00 | 33 | 1011.0 |
| 20260905145517 | 35 | 42 | 0.0 | 6.4 | 0.00 | 0.00 | 0.00 | 33 | 1011.0 |
| 20260905145306 | 35 | 30 | 0.0 | 6.4 | 0.00 | 0.00 | 0.00 | 32 | 1011.1 |
| 20260905145146 | 35 | 24 | 1.6 | 6.4 | 0.00 | 0.00 | 0.00 | 32 | 1011.0 |
| 20260905145043 | 35 | 47 | 0.0 | 8.0 | 0.00 | 0.00 | 0.00 | 32 | 1011.1 |
| 20260905144716 | 35 | 103 | 0.0 | 8.0 | 0.00 | 0.00 | 0.00 | 32 | 1011.0 |
| 20260905144517 | 35 | 84 | 0.0 | 8.0 | 0.00 | 0.00 | 0.00 | 32 | 1011.0 |
| 20260905144304 | 35 | 26 | 0.0 | 8.0 | 0.00 | 0.00 | 0.00 | 31 | 1011.0 |
| 20260905144117 | 35 | 52 | 0.0 | 8.0 | 0.00 | 0.00 | 0.00 | 31 | 1011.0 |
| 20260905143916 | 35 | 38 | 0.0 | 6.4 | 0.00 | 0.00 | 0.00 | 30 | 1011.0 |
| 20260905143803 | 35 | 63 | 0.0 | 6.4 | 0.00 | 0.00 | 0.00 | 30 | 1011.0 |
| 20260905143718 | 35 | 62 | 0.0 | 6.4 | 0.00 | 0.00 | 0.00 | 30 | 1011.1 |
| 20260905143515 | 35 | 18 | 0.0 | 6.4 | 0.00 | 0.00 | 0.00 | 30 | 1011.0 |
| 20260905143304 | 35 | 33 | 0.0 | 6.4 | 0.00 | 0.00 | 0.00 | 30 | 1011.1 |
| 20260905143118 | 35 | 36 | 0.0 | 6.4 | 0.00 | 0.00 | 0.00 | 30 | 1011.1 |
| 20260905142913 | 35 | 17 | 0.0 | 4.8 | 0.00 | 0.00 | 0.00 | 28 | 1011.2 |
| 20260905142805 | 35 | 40 | 0.0 | 4.8 | 0.00 | 0.00 | 0.00 | 28 | 1011.2 |
| 20260905142711 | 35 | 30 | 0.0 | 4.8 | 0.00 | 0.00 | 0.00 | 28 | 1011.2 |
| 20260905142618 | 35 | 30 | 0.0 | 9.7 | 0.00 | 0.00 | 0.00 | 28 | 1011.2 |
| 20260905142307 | 35 | 65 | 1.6 | 12.9 | 0.00 | 0.00 | 0.00 | 28 | 1011.2 |
| 20260905142114 | 35 | 111 | 1.6 | 12.9 | 0.00 | 0.00 | 0.00 | 28 | 1011.0 |
| 20260905141919 | 35 | 67 | 1.6 | 12.9 | 0.00 | 0.00 | 0.00 | 28 | 1011.2 |
| 20260905141848 | 35 | 78 | 1.6 | 12.9 | 0.00 | 0.00 | 0.00 | 28 | 1011.1 |
| 20260905141817 | 35 | 112 | 1.6 | 12.9 | 0.00 | 0.00 | 0.00 | 28 | 1011.2 |
| 20260905141327 | 35 | 83 | 0.0 | 6.4 | 0.00 | 0.00 | 0.00 | 27 | 1011.2 |
| 20260905141317 | 35 | 75 | 0.0 | 6.4 | 0.00 | 0.00 | 0.00 | 27 | 1011.2 |
| 20260905141111 | 35 | 129 | 0.0 | 6.4 | 0.00 | 0.00 | 0.00 | 26 | 1011.2 |
| 20260905140913 | 35 | 64 | 0.0 | 6.4 | 0.00 | 0.00 | 0.00 | 26 | 1011.2 |
| 20260905140803 | 35 | 138 | 0.0 | 6.4 | 0.00 | 0.00 | 0.00 | 26 | 1011.2 |
| 20260905140712 | 35 | 84 | 0.0 | 8.0 | 0.00 | 0.00 | 0.00 | 27 | 1011.1 |
| 20260905140513 | 35 | 119 | 0.0 | 8.0 | 0.00 | 0.00 | 0.00 | 26 | 1011.1 |
| 20260905140307 | 35 | 124 | 0.0 | 8.0 | 0.00 | 0.00 | 0.00 | 26 | 1011.1 |
| 20260905140106 | 35 | 119 | 1.6 | 9.7 | 0.00 | 0.00 | 0.00 | 26 | 1011.2 |
| 20260905135947 | 35 | 38 | 1.6 | 9.7 | 0.00 | 0.00 | 0.00 | 26 | 1011.3 |
| 20260905135916 | 35 | 124 | 0.0 | 9.7 | 0.00 | 0.00 | 0.00 | 26 | 1011.4 |
| 20260905135838 | 35 | 88 | 0.0 | 9.7 | 0.00 | 0.00 | 0.00 | 27 | 1011.3 |
| 20260905135753 | 35 | 72 | 0.0 | 9.7 | 0.00 | 0.00 | 0.00 | 27 | 1011.4 |
| 20260905135447 | 35 | 38 | 0.0 | 9.7 | 0.00 | 0.00 | 0.00 | 27 | 1011.3 |
| 20260905135348 | 35 | 136 | 0.0 | 4.8 | 0.00 | 0.00 | 0.00 | 27 | 1011.3 |
| 20260905134713 | 35 | 92 | 0.0 | 4.8 | 0.00 | 0.00 | 0.00 | 28 | 1011.3 |
| 20260905134618 | 35 | 26 | 0.0 | 8.0 | 0.00 | 0.00 | 0.00 | 28 | 1011.3 |
| 20260905134519 | 35 | 109 | 0.0 | 8.0 | 0.00 | 0.00 | 0.00 | 27 | 1011.4 |
| 20260905134125 | 35 | 117 | 0.0 | 8.0 | 0.00 | 0.00 | 0.00 | 27 | 1011.4 |
| 20260905134022 | 35 | 93 | 0.0 | 8.0 | 0.00 | 0.00 | 0.00 | 27 | 1011.4 |
| 20260905133953 | 35 | 108 | 0.0 | 8.0 | 0.00 | 0.00 | 0.00 | 27 | 1011.5 |
| 20260905133923 | 35 | 113 | 0.0 | 8.0 | 0.00 | 0.00 | 0.00 | 27 | 1011.5 |
| 20260905133838 | 35 | 78 | 0.0 | 4.8 | 0.00 | 0.00 | 0.00 | 27 | 1011.5 |
| 20260905133214 | 35 | 142 | 0.0 | 4.8 | 0.00 | 0.00 | 0.00 | 27 | 1011.6 |
| 20260905133119 | 35 | 51 | 0.0 | 4.8 | 0.00 | 0.00 | 0.00 | 27 | 1011.6 |
| 20260905133052 | 34 | 100 | 0.0 | 4.8 | 0.00 | 0.00 | 0.00 | 28 | 1011.6 |
| 20260905132312 | 34 | 42 | 0.0 | 11.3 | 0.00 | 0.00 | 0.00 | 29 | 1011.6 |
| 20260905132210 | 34 | 79 | 1.6 | 12.9 | 0.00 | 0.00 | 0.00 | 29 | 1011.6 |
| 20260905131805 | 33 | 113 | 3.2 | 12.9 | 0.00 | 0.00 | 0.00 | 28 | 1011.5 |
| 20260905131710 | 33 | 110 | 3.2 | 12.9 | 0.00 | 0.00 | 0.00 | 28 | 1011.5 |
| 20260905131507 | 33 | 116 | 4.8 | 12.9 | 0.00 | 0.00 | 0.00 | 28 | 1011.6 |
| 20260905131314 | 33 | 191 | 4.8 | 12.9 | 0.00 | 0.00 | 0.00 | 28 | 1011.6 |
| 20260905131308 | 33 | 191 | 4.8 | 12.9 | 0.00 | 0.00 | 0.00 | 28 | 1011.6 |
| 20260905131112 | 33 | 164 | 4.8 | 11.3 | 0.00 | 0.00 | 0.00 | 28 | 1011.7 |
| 20260905131015 | 34 | 161 | 3.2 | 11.3 | 0.00 | 0.00 | 0.00 | 28 | 1011.7 |
| 20260905130947 | 34 | 149 | 3.2 | 11.3 | 0.00 | 0.00 | 0.00 | 28 | 1011.8 |
| 20260905130312 | 34 | 163 | 1.6 | 11.3 | 0.00 | 0.00 | 0.00 | 28 | 1011.8 |
| 20260905130306 | 34 | 163 | 1.6 | 11.3 | 0.00 | 0.00 | 0.00 | 28 | 1011.8 |
| 20260905130104 | 34 | 122 | 0.0 | 11.3 | 0.00 | 0.00 | 0.00 | 28 | 1011.8 |
| 20260905125904 | 34 | 122 | 0.0 | 9.7 | 0.00 | 0.00 | 0.00 | 29 | 1011.9 |
| 20260905125803 | 34 | 51 | 0.0 | 9.7 | 0.00 | 0.00 | 0.00 | 28 | 1011.8 |
| 20260905125701 | 34 | 78 | 0.0 | 9.7 | 0.00 | 0.00 | 0.00 | 28 | 1011.9 |
| 20260905125500 | 34 | 111 | 1.6 | 9.7 | 0.00 | 0.00 | 0.00 | 28 | 1011.9 |
| 20260905125310 | 34 | 104 | 1.6 | 9.7 | 0.00 | 0.00 | 0.00 | 28 | 1011.9 |
| 20260905125300 | 34 | 103 | 1.6 | 9.7 | 0.00 | 0.00 | 0.00 | 28 | 1011.9 |
| 20260905125103 | 33 | 70 | 1.6 | 9.7 | 0.00 | 0.00 | 0.00 | 28 | 1012.1 |
| 20260905125012 | 33 | 128 | 1.6 | 9.7 | 0.00 | 0.00 | 0.00 | 28 | 1012.0 |
| 20260905124948 | 34 | 128 | 1.6 | 9.7 | 0.00 | 0.00 | 0.00 | 28 | 1012.0 |
| 20260905124607 | 34 | 148 | 1.6 | 9.7 | 0.00 | 0.00 | 0.00 | 27 | 1012.0 |
| 20260905124514 | 34 | 149 | 1.6 | 9.7 | 0.00 | 0.00 | 0.00 | 27 | 1012.1 |
| 20260905124053 | 34 | 80 | 0.0 | 9.7 | 0.00 | 0.00 | 0.00 | 27 | 1012.0 |
| 20260905123852 | 34 | 28 | 1.6 | 11.3 | 0.00 | 0.00 | 0.00 | 28 | 1012.0 |
| 20260905123803 | 34 | 65 | 1.6 | 11.3 | 0.00 | 0.00 | 0.00 | 28 | 1012.0 |
| 20260905123651 | 34 | 77 | 1.6 | 11.3 | 0.00 | 0.00 | 0.00 | 28 | 1011.9 |
| 20260905123448 | 34 | 28 | 1.6 | 11.3 | 0.00 | 0.00 | 0.00 | 28 | 1011.9 |
| 20260905123304 | 34 | 65 | 1.6 | 11.3 | 0.00 | 0.00 | 0.00 | 28 | 1012.0 |
| 20260905123250 | 34 | 65 | 1.6 | 11.3 | 0.00 | 0.00 | 0.00 | 28 | 1012.0 |
| 20260905123042 | 34 | 62 | 1.6 | 11.3 | 0.00 | 0.00 | 0.00 | 28 | 1012.2 |
| 20260905122857 | 34 | 123 | 0.0 | 11.3 | 0.00 | 0.00 | 0.00 | 28 | 1012.2 |
| 20260905122835 | 34 | 163 | 0.0 | 6.4 | 0.00 | 0.00 | 0.00 | 28 | 1012.3 |
| 20260905122754 | 34 | 159 | 0.0 | 6.4 | 0.00 | 0.00 | 0.00 | 28 | 1012.1 |
| 20260905122704 | 34 | 66 | 0.0 | 6.4 | 0.00 | 0.00 | 0.00 | 28 | 1012.2 |
| 20260905122617 | 34 | 66 | 0.0 | 6.4 | 0.00 | 0.00 | 0.00 | 28 | 1012.2 |
| 20260905122254 | 34 | 76 | 0.0 | 6.4 | 0.00 | 0.00 | 0.00 | 28 | 1012.2 |
| 20260905122200 | 33 | 109 | 0.0 | 6.4 | 0.00 | 0.00 | 0.00 | 29 | 1012.4 |
| 20260905122141 | 33 | 60 | 0.0 | 4.8 | 0.00 | 0.00 | 0.00 | 29 | 1012.4 |
| 20260905121807 | 33 | 57 | 0.0 | 4.8 | 0.00 | 0.00 | 0.00 | 29 | 1012.4 |
| 20260905121503 | 33 | 78 | 0.0 | 6.4 | 0.00 | 0.00 | 0.00 | 29 | 1012.5 |
| 20260905121401 | 33 | 17 | 0.0 | 6.4 | 0.00 | 0.00 | 0.00 | 29 | 1012.5 |
| 20260905120747 | 33 | 31 | 0.0 | 6.4 | 0.00 | 0.00 | 0.00 | 29 | 1012.5 |
| 20260905120656 | 33 | 24 | 0.0 | 6.4 | 0.00 | 0.00 | 0.00 | 29 | 1012.5 |
| 20260905120614 | 33 | 37 | 0.0 | 4.8 | 0.00 | 0.00 | 0.00 | 29 | 1012.5 |
| 20260905115834 | 33 | 61 | 0.0 | 3.2 | 0.00 | 0.00 | 0.00 | 30 | 1012.6 |
| 20260905115804 | 33 | 47 | 0.0 | 6.4 | 0.00 | 0.00 | 0.00 | 30 | 1012.6 |
| 20260905115640 | 33 | 342 | 0.0 | 6.4 | 0.00 | 0.00 | 0.00 | 30 | 1012.6 |
| 20260905115536 | 33 | 331 | 0.0 | 6.4 | 0.00 | 0.00 | 0.00 | 30 | 1012.6 |
| 20260905115453 | 33 | 17 | 0.0 | 6.4 | 0.00 | 0.00 | 0.00 | 30 | 1012.6 |
| 20260905115436 | 33 | 32 | 0.0 | 6.4 | 0.00 | 0.00 | 0.00 | 30 | 1012.6 |
| 20260905115029 | 33 | 42 | 1.6 | 12.9 | 0.00 | 0.00 | 0.00 | 30 | 1012.6 |
| 20260905114633 | 33 | 77 | 1.6 | 12.9 | 0.00 | 0.00 | 0.00 | 30 | 1012.6 |
| 20260905114435 | 33 | 119 | 1.6 | 12.9 | 0.00 | 0.00 | 0.00 | 30 | 1012.7 |
| 20260905114303 | 33 | 113 | 1.6 | 12.9 | 0.00 | 0.00 | 0.00 | 30 | 1012.7 |
| 20260905114232 | 33 | 120 | 1.6 | 12.9 | 0.00 | 0.00 | 0.00 | 30 | 1012.7 |
| 20260905114052 | 33 | 135 | 1.6 | 12.9 | 0.00 | 0.00 | 0.00 | 30 | 1012.7 |
| 20260905113959 | 33 | 124 | 0.0 | 9.7 | 0.00 | 0.00 | 0.00 | 31 | 1012.7 |
| 20260905113940 | 33 | 125 | 0.0 | 9.7 | 0.00 | 0.00 | 0.00 | 30 | 1012.7 |
| 20260905113547 | 33 | 88 | 0.0 | 6.4 | 0.00 | 0.00 | 0.00 | 31 | 1012.8 |
| 20260905113505 | 33 | 36 | 0.0 | 1.6 | 0.00 | 0.00 | 0.00 | 31 | 1012.8 |
| 20260905113135 | 33 | 109 | 0.0 | 1.6 | 0.00 | 0.00 | 0.00 | 31 | 1012.8 |
| 20260905112804 | 33 | 59 | 0.0 | 1.6 | 0.00 | 0.00 | 0.00 | 31 | 1012.7 |
| 20260905112655 | 33 | 41 | 0.0 | 1.6 | 0.00 | 0.00 | 0.00 | 31 | 1012.8 |
| 20260905112559 | 33 | 132 | 0.0 | 9.7 | 0.00 | 0.00 | 0.00 | 32 | 1012.8 |
| 20260905112227 | 33 | 176 | 0.0 | 9.7 | 0.00 | 0.00 | 0.00 | 32 | 1012.8 |
| 20260905112027 | 33 | 129 | 0.0 | 9.7 | 0.00 | 0.00 | 0.00 | 31 | 1012.9 |
| 20260905111828 | 33 | 102 | 0.0 | 9.7 | 0.00 | 0.00 | 0.00 | 31 | 1012.9 |
| 20260905111805 | 33 | 85 | 0.0 | 9.7 | 0.00 | 0.00 | 0.00 | 31 | 1012.9 |
| 20260905111629 | 33 | 136 | 0.0 | 9.7 | 0.00 | 0.00 | 0.00 | 31 | 1012.9 |
| 20260905111453 | 33 | 170 | 0.0 | 6.4 | 0.00 | 0.00 | 0.00 | 31 | 1012.9 |
| 20260905111418 | 33 | 80 | 0.0 | 6.4 | 0.00 | 0.00 | 0.00 | 31 | 1012.9 |
| 20260905111355 | 33 | 112 | 0.0 | 6.4 | 0.00 | 0.00 | 0.00 | 31 | 1012.9 |
| 20260905111253 | 33 | 128 | 0.0 | 6.4 | 0.00 | 0.00 | 0.00 | 32 | 1012.9 |
| 20260905111158 | 33 | 13 | 0.0 | 4.8 | 0.00 | 0.00 | 0.00 | 32 | 1012.9 |
| 20260905110539 | 33 | 107 | 0.0 | 11.3 | 0.00 | 0.00 | 0.00 | 32 | 1012.9 |
| 20260905110458 | 32 | 74 | 0.0 | 11.3 | 0.00 | 0.00 | 0.00 | 32 | 1013.0 |
| 20260905110035 | 32 | 12 | 0.0 | 11.3 | 0.00 | 0.00 | 0.00 | 32 | 1013.0 |
| 20260905105936 | 32 | 91 | 1.6 | 11.3 | 0.00 | 0.00 | 0.00 | 31 | 1013.0 |
| 20260905105922 | 32 | 90 | 1.6 | 11.3 | 0.00 | 0.00 | 0.00 | 32 | 1013.0 |
| 20260905105425 | 32 | 167 | 0.0 | 11.3 | 0.00 | 0.00 | 0.00 | 32 | 1013.0 |
| 20260905105306 | 32 | 148 | 0.0 | 11.3 | 0.00 | 0.00 | 0.00 | 32 | 1013.0 |
| 20260905105225 | 32 | 203 | 1.6 | 11.3 | 0.00 | 0.00 | 0.00 | 32 | 1013.0 |
| 20260905105027 | 32 | 166 | 1.6 | 11.3 | 0.00 | 0.00 | 0.00 | 33 | 1013.0 |
| 20260905104848 | 32 | 165 | 0.0 | 11.3 | 0.00 | 0.00 | 0.00 | 32 | 1012.9 |
| 20260905104831 | 32 | 166 | 0.0 | 11.3 | 0.00 | 0.00 | 0.00 | 32 | 1012.9 |
| 20260905104743 | 32 | 132 | 0.0 | 8.0 | 0.00 | 0.00 | 0.00 | 32 | 1013.0 |
| 20260905104356 | 32 | 90 | 0.0 | 8.0 | 0.00 | 0.00 | 0.00 | 32 | 1013.0 |
| 20260905104328 | 32 | 143 | 0.0 | 8.0 | 0.00 | 0.00 | 0.00 | 32 | 1012.9 |
| 20260905103823 | 32 | 102 | 0.0 | 1.6 | 0.00 | 0.00 | 0.00 | 32 | 1013.0 |
| 20260905103733 | 32 | 102 | 0.0 | 1.6 | 0.00 | 0.00 | 0.00 | 32 | 1013.0 |
| 20260905103636 | 32 | 98 | 0.0 | 1.6 | 0.00 | 0.00 | 0.00 | 34 | 1013.0 |
| 20260905103326 | 32 | 122 | 0.0 | 1.6 | 0.00 | 0.00 | 0.00 | 34 | 1013.0 |
| 20260905102804 | 32 | 26 | 1.6 | 11.3 | 0.00 | 0.00 | 0.00 | 35 | 1013.0 |
| 20260905102622 | 32 | 26 | 1.6 | 11.3 | 0.00 | 0.00 | 0.00 | 36 | 1013.0 |
| 20260905102521 | 32 | 26 | 1.6 | 11.3 | 0.00 | 0.00 | 0.00 | 36 | 1013.1 |
| 20260905102452 | 32 | 49 | 1.6 | 11.3 | 0.00 | 0.00 | 0.00 | 36 | 1013.2 |
| 20260905102058 | 32 | 119 | 0.0 | 11.3 | 0.00 | 0.00 | 0.00 | 36 | 1013.1 |
| 20260905102002 | 32 | 117 | 0.0 | 1.6 | 0.00 | 0.00 | 0.00 | 36 | 1013.1 |
| 20260905101950 | 32 | 116 | 0.0 | 6.4 | 0.00 | 0.00 | 0.00 | 36 | 1013.1 |
| 20260905101557 | 32 | 86 | 0.0 | 6.4 | 0.00 | 0.00 | 0.00 | 36 | 1013.2 |
| 20260905101526 | 32 | 78 | 0.0 | 6.4 | 0.00 | 0.00 | 0.00 | 36 | 1013.2 |
| 20260905101459 | 32 | 141 | 0.0 | 6.4 | 0.00 | 0.00 | 0.00 | 36 | 1013.2 |
| 20260905101358 | 32 | 187 | 0.0 | 6.4 | 0.00 | 0.00 | 0.00 | 37 | 1013.4 |
| 20260905101306 | 32 | 15 | 0.0 | 4.8 | 0.00 | 0.00 | 0.00 | 37 | 1013.4 |
| 20260905101001 | 31 | 38 | 0.0 | 4.8 | 0.00 | 0.00 | 0.00 | 37 | 1013.5 |
| 20260905100629 | 31 | 164 | 0.0 | 6.4 | 0.00 | 0.00 | 0.00 | 37 | 1013.6 |
| 20260905100549 | 31 | 165 | 0.0 | 6.4 | 0.00 | 0.00 | 0.00 | 37 | 1013.5 |
| 20260905100455 | 31 | 187 | 0.0 | 6.4 | 0.00 | 0.00 | 0.00 | 37 | 1013.5 |
| 20260905095848 | 31 | 162 | 0.0 | 6.4 | 0.00 | 0.00 | 0.00 | 38 | 1013.6 |
| 20260905095223 | 31 | 70 | 0.0 | 8.0 | 0.00 | 0.00 | 0.00 | 38 | 1013.7 |
| 20260905095124 | 31 | 111 | 0.0 | 8.0 | 0.00 | 0.00 | 0.00 | 38 | 1013.6 |
| 20260905095029 | 31 | 60 | 0.0 | 8.0 | 0.00 | 0.00 | 0.00 | 38 | 1013.7 |
| 20260905094715 | 31 | 89 | 0.0 | 8.0 | 0.00 | 0.00 | 0.00 | 38 | 1013.7 |
| 20260905094303 | 31 | 321 | 0.0 | 8.0 | 0.00 | 0.00 | 0.00 | 39 | 1013.7 |
| 20260905094215 | 31 | 341 | 0.0 | 8.0 | 0.00 | 0.00 | 0.00 | 39 | 1013.7 |
| 20260905094113 | 31 | 181 | 0.0 | 8.0 | 0.00 | 0.00 | 0.00 | 39 | 1013.8 |
| 20260905094018 | 31 | 150 | 0.0 | 1.6 | 0.00 | 0.00 | 0.00 | 39 | 1013.8 |
| 20260905093635 | 31 | 119 | 0.0 | 8.0 | 0.00 | 0.00 | 0.00 | 38 | 1013.9 |
| 20260905093541 | 31 | 47 | 0.0 | 8.0 | 0.00 | 0.00 | 0.00 | 39 | 1013.9 |
| 20260905093221 | 31 | 34 | 0.0 | 8.0 | 0.00 | 0.00 | 0.00 | 39 | 1013.9 |
| 20260905093127 | 31 | 69 | 0.0 | 8.0 | 0.00 | 0.00 | 0.00 | 39 | 1013.9 |
| 20260905093018 | 31 | 130 | 0.0 | 8.0 | 0.00 | 0.00 | 0.00 | 40 | 1013.8 |
| 20260905092712 | 30 | 116 | 0.0 | 1.6 | 0.00 | 0.00 | 0.00 | 40 | 1013.9 |
| 20260905092306 | 30 | 130 | 0.0 | 4.8 | 0.00 | 0.00 | 0.00 | 40 | 1014.0 |
| 20260905092212 | 30 | 109 | 0.0 | 4.8 | 0.00 | 0.00 | 0.00 | 41 | 1014.0 |
| 20260905092120 | 30 | 159 | 0.0 | 4.8 | 0.00 | 0.00 | 0.00 | 40 | 1014.0 |
| 20260905092018 | 30 | 336 | 0.0 | 8.0 | 0.00 | 0.00 | 0.00 | 40 | 1014.0 |
| 20260905091616 | 30 | 72 | 0.0 | 8.0 | 0.00 | 0.00 | 0.00 | 40 | 1014.0 |
| 20260905091520 | 30 | 24 | 0.0 | 8.0 | 0.00 | 0.00 | 0.00 | 40 | 1014.0 |
| 20260905091450 | 30 | 103 | 0.0 | 8.0 | 0.00 | 0.00 | 0.00 | 40 | 1014.1 |
| 20260905091016 | 30 | 13 | 0.0 | 8.0 | 0.00 | 0.00 | 0.00 | 40 | 1014.1 |
| 20260905090912 | 30 | 127 | 1.6 | 8.0 | 0.00 | 0.00 | 0.00 | 40 | 1014.1 |
| 20260905090903 | 30 | 104 | 1.6 | 8.0 | 0.00 | 0.00 | 0.00 | 40 | 1014.1 |
| 20260905090417 | 30 | 172 | 1.6 | 8.0 | 0.00 | 0.00 | 0.00 | 40 | 1014.0 |
| 20260905090340 | 30 | 89 | 1.6 | 8.0 | 0.00 | 0.00 | 0.00 | 40 | 1014.1 |
| 20260905090314 | 30 | 88 | 1.6 | 8.0 | 0.00 | 0.00 | 0.00 | 40 | 1014.1 |
| 20260905085810 | 31 | 150 | 0.0 | 4.8 | 0.00 | 0.00 | 0.00 | 40 | 1014.2 |
| 20260905085757 | 31 | 176 | 0.0 | 3.2 | 0.00 | 0.00 | 0.00 | 40 | 1014.2 |
| 20260905085606 | 30 | 130 | 0.0 | 3.2 | 0.00 | 0.00 | 0.00 | 40 | 1014.0 |
| 20260905085406 | 30 | 72 | 0.0 | 3.2 | 0.00 | 0.00 | 0.00 | 40 | 1014.0 |
| 20260905085259 | 30 | 100 | 0.0 | 3.2 | 0.00 | 0.00 | 0.00 | 40 | 1014.2 |
| 20260905085207 | 30 | 122 | 0.0 | 3.2 | 0.00 | 0.00 | 0.00 | 40 | 1014.1 |
| 20260905085008 | 30 | 87 | 0.0 | 0.0 | 0.00 | 0.00 | 0.00 | 40 | 1014.2 |
| 20260905084820 | 30 | 45 | 0.0 | 8.0 | 0.00 | 0.00 | 0.00 | 40 | 1014.2 |
| 20260905084805 | 30 | 45 | 0.0 | 8.0 | 0.00 | 0.00 | 0.00 | 40 | 1014.2 |
| 20260905084721 | 30 | 61 | 0.0 | 8.0 | 0.00 | 0.00 | 0.00 | 40 | 1014.2 |
| 20260905084625 | 30 | 61 | 0.0 | 8.0 | 0.00 | 0.00 | 0.00 | 40 | 1014.3 |
| 20260905084554 | 30 | 60 | 0.0 | 8.0 | 0.00 | 0.00 | 0.00 | 40 | 1014.3 |
| 20260905084222 | 30 | 80 | 0.0 | 8.0 | 0.00 | 0.00 | 0.00 | 40 | 1014.3 |
| 20260905084124 | 30 | 18 | 0.0 | 6.4 | 0.00 | 0.00 | 0.00 | 41 | 1014.4 |
| 20260905083817 | 30 | 63 | 0.0 | 6.4 | 0.00 | 0.00 | 0.00 | 41 | 1014.3 |
| 20260905083723 | 30 | 105 | 0.0 | 6.4 | 0.00 | 0.00 | 0.00 | 41 | 1014.3 |
| 20260905083007 | 30 | 72 | 0.0 | 6.4 | 0.00 | 0.00 | 0.00 | 41 | 1014.4 |
| 20260905082808 | 29 | 6 | 0.0 | 6.4 | 0.00 | 0.00 | 0.00 | 41 | 1014.3 |
| 20260905082752 | 29 | 6 | 0.0 | 6.4 | 0.00 | 0.00 | 0.00 | 41 | 1014.3 |
| 20260905082607 | 29 | 13 | 0.0 | 6.4 | 0.00 | 0.00 | 0.00 | 41 | 1014.3 |
| 20260905082406 | 29 | 13 | 0.0 | 6.4 | 0.00 | 0.00 | 0.00 | 41 | 1014.3 |
| 20260905082252 | 29 | 13 | 0.0 | 6.4 | 0.00 | 0.00 | 0.00 | 41 | 1014.4 |
| 20260905082206 | 29 | 13 | 0.0 | 6.4 | 0.00 | 0.00 | 0.00 | 41 | 1014.4 |
| 20260905082010 | 29 | 16 | 0.0 | 6.4 | 0.00 | 0.00 | 0.00 | 41 | 1014.4 |
| 20260905081807 | 29 | 35 | 0.0 | 3.2 | 0.00 | 0.00 | 0.00 | 41 | 1014.4 |
| 20260905081751 | 29 | 35 | 0.0 | 3.2 | 0.00 | 0.00 | 0.00 | 41 | 1014.4 |
| 20260905081608 | 29 | 17 | 0.0 | 3.2 | 0.00 | 0.00 | 0.00 | 41 | 1014.4 |
| 20260905081408 | 29 | 44 | 0.0 | 1.6 | 0.00 | 0.00 | 0.00 | 40 | 1014.4 |
| 20260905081248 | 29 | 44 | 0.0 | 1.6 | 0.00 | 0.00 | 0.00 | 40 | 1014.4 |
| 20260905081208 | 29 | 40 | 0.0 | 1.6 | 0.00 | 0.00 | 0.00 | 41 | 1014.4 |
| 20260905081008 | 29 | 17 | 0.0 | 1.6 | 0.00 | 0.00 | 0.00 | 41 | 1014.4 |
| 20260905080807 | 29 | 37 | 0.0 | 1.6 | 0.00 | 0.00 | 0.00 | 41 | 1014.3 |
| 20260905080747 | 29 | 356 | 0.0 | 1.6 | 0.00 | 0.00 | 0.00 | 41 | 1014.3 |
| 20260905080607 | 29 | 35 | 0.0 | 1.6 | 0.00 | 0.00 | 0.00 | 41 | 1014.4 |
| 20260905080418 | 29 | 49 | 0.0 | 1.6 | 0.00 | 0.00 | 0.00 | 41 | 1014.3 |
| 20260905080317 | 29 | 23 | 0.0 | 8.0 | 0.00 | 0.00 | 0.00 | 41 | 1014.4 |
| 20260905080221 | 29 | 53 | 0.0 | 8.0 | 0.00 | 0.00 | 0.00 | 41 | 1014.4 |
| 20260905075858 | 29 | 53 | 0.0 | 8.0 | 0.00 | 0.00 | 0.00 | 41 | 1014.4 |
| 20260905075819 | 29 | 49 | 0.0 | 8.0 | 0.00 | 0.00 | 0.00 | 41 | 1014.3 |
| 20260905075443 | 29 | 156 | 0.0 | 6.4 | 0.00 | 0.00 | 0.00 | 41 | 1014.3 |
| 20260905075009 | 28 | 132 | 0.0 | 6.4 | 0.00 | 0.00 | 0.00 | 41 | 1014.4 |
| 20260905074807 | 28 | 130 | 0.0 | 6.4 | 0.00 | 0.00 | 0.00 | 41 | 1014.3 |
| 20260905074741 | 29 | 84 | 0.0 | 6.4 | 0.00 | 0.00 | 0.00 | 41 | 1014.3 |
| 20260905074606 | 29 | 13 | 0.0 | 6.4 | 0.00 | 0.00 | 0.00 | 41 | 1014.3 |
| 20260905074419 | 29 | 26 | 0.0 | 6.4 | 0.00 | 0.00 | 0.00 | 41 | 1014.3 |
| 20260905074247 | 29 | 276 | 0.0 | 6.4 | 0.00 | 0.00 | 0.00 | 41 | 1014.3 |
| 20260905074217 | 29 | 356 | 0.0 | 6.4 | 0.00 | 0.00 | 0.00 | 41 | 1014.3 |
| 20260905074121 | 28 | 185 | 0.0 | 0.0 | 0.00 | 0.00 | 0.00 | 42 | 1014.2 |
| 20260905073753 | 28 | 38 | 0.0 | 0.0 | 0.00 | 0.00 | 0.00 | 42 | 1014.2 |
| 20260905073713 | 28 | 38 | 0.0 | 0.0 | 0.00 | 0.00 | 0.00 | 42 | 1014.2 |
| 20260905073616 | 28 | 21 | 0.0 | 1.6 | 0.00 | 0.00 | 0.00 | 43 | 1014.2 |
| 20260905073539 | 28 | 21 | 0.0 | 1.6 | 0.00 | 0.00 | 0.00 | 43 | 1014.3 |
| 20260905072809 | 28 | 356 | 0.0 | 1.6 | 0.00 | 0.00 | 0.00 | 42 | 1014.2 |
| 20260905072749 | 28 | 351 | 0.0 | 1.6 | 0.00 | 0.00 | 0.00 | 42 | 1014.2 |
| 20260905072709 | 28 | 342 | 0.0 | 1.6 | 0.00 | 0.00 | 0.00 | 42 | 1014.2 |
| 20260905072208 | 28 | 46 | 0.0 | 0.0 | 0.00 | 0.00 | 0.00 | 43 | 1014.2 |
| 20260905072009 | 27 | 46 | 0.0 | 0.0 | 0.00 | 0.00 | 0.00 | 43 | 1014.2 |
| 20260905071810 | 27 | 26 | 0.0 | 0.0 | 0.00 | 0.00 | 0.00 | 43 | 1014.2 |
| 20260905071748 | 27 | 332 | 0.0 | 0.0 | 0.00 | 0.00 | 0.00 | 43 | 1014.2 |
| 20260905071709 | 27 | 332 | 0.0 | 0.0 | 0.00 | 0.00 | 0.00 | 43 | 1014.2 |
| 20260905071206 | 27 | 332 | 0.0 | 1.6 | 0.00 | 0.00 | 0.00 | 42 | 1014.2 |
| 20260905071036 | 27 | 332 | 0.0 | 1.6 | 0.00 | 0.00 | 0.00 | 42 | 1014.2 |
| 20260905070937 | 27 | 332 | 0.0 | 1.6 | 0.00 | 0.00 | 0.00 | 42 | 1014.2 |
| 20260905070918 | 27 | 332 | 0.0 | 1.6 | 0.00 | 0.00 | 0.00 | 42 | 1014.2 |
| 20260905070833 | 27 | 11 | 0.0 | 1.6 | 0.00 | 0.00 | 0.00 | 42 | 1014.2 |
| 20260905070209 | 27 | 38 | 0.0 | 0.0 | 0.00 | 0.00 | 0.00 | 43 | 1014.2 |
| 20260905070008 | 27 | 38 | 0.0 | 0.0 | 0.00 | 0.00 | 0.00 | 43 | 1014.2 |
| 20260905065806 | 27 | 121 | 0.0 | 0.0 | 0.00 | 0.00 | 0.00 | 42 | 1014.1 |
| 20260905065731 | 27 | 121 | 0.0 | 0.0 | 0.00 | 0.00 | 0.00 | 42 | 1014.1 |
| 20260905065606 | 27 | 121 | 0.0 | 6.4 | 0.00 | 0.00 | 0.00 | 42 | 1014.2 |
| 20260905065403 | 27 | 120 | 0.0 | 6.4 | 0.00 | 0.00 | 0.00 | 42 | 1014.1 |
| 20260905065232 | 27 | 120 | 0.0 | 6.4 | 0.00 | 0.00 | 0.00 | 42 | 1014.2 |
| 20260905065206 | 27 | 120 | 0.0 | 6.4 | 0.00 | 0.00 | 0.00 | 42 | 1014.1 |
| 20260905065004 | 27 | 120 | 0.0 | 6.4 | 0.00 | 0.00 | 0.00 | 41 | 1014.1 |
| 20260905064806 | 28 | 121 | 0.0 | 6.4 | 0.00 | 0.00 | 0.00 | 41 | 1014.1 |
| 20260905064747 | 28 | 113 | 0.0 | 6.4 | 0.00 | 0.00 | 0.00 | 41 | 1014.1 |
| 20260905064705 | 28 | 73 | 0.0 | 1.6 | 0.00 | 0.00 | 0.00 | 41 | 1014.2 |
| 20260905064616 | 28 | 122 | 0.0 | 0.0 | 0.00 | 0.00 | 0.00 | 41 | 1014.1 |
| 20260905064533 | 28 | 65 | 0.0 | 0.0 | 0.00 | 0.00 | 0.00 | 41 | 1014.2 |
| 20260905063758 | 28 | 38 | 0.0 | 0.0 | 0.00 | 0.00 | 0.00 | 41 | 1014.2 |
| 20260905063731 | 28 | 31 | 0.0 | 0.0 | 0.00 | 0.00 | 0.00 | 41 | 1014.1 |
| 20260905063559 | 27 | 93 | 0.0 | 0.0 | 0.00 | 0.00 | 0.00 | 41 | 1014.2 |
| 20260905063356 | 27 | 57 | 0.0 | 0.0 | 0.00 | 0.00 | 0.00 | 41 | 1014.1 |
| 20260905063234 | 27 | 57 | 0.0 | 0.0 | 0.00 | 0.00 | 0.00 | 41 | 1014.2 |
| 20260905063154 | 27 | 57 | 0.0 | 0.0 | 0.00 | 0.00 | 0.00 | 41 | 1014.2 |
| 20260905062956 | 27 | 57 | 0.0 | 0.0 | 0.00 | 0.00 | 0.00 | 42 | 1014.2 |
| 20260905062732 | 27 | 53 | 0.0 | 0.0 | 0.00 | 0.00 | 0.00 | 42 | 1014.2 |
| 20260905062550 | 27 | 51 | 0.0 | 0.0 | 0.00 | 0.00 | 0.00 | 42 | 1014.3 |
| 20260905062359 | 27 | 51 | 0.0 | 0.0 | 0.00 | 0.00 | 0.00 | 42 | 1014.3 |
| 20260905062315 | 27 | 51 | 0.0 | 0.0 | 0.00 | 0.00 | 0.00 | 42 | 1014.3 |
| 20260905062255 | 27 | 51 | 0.0 | 0.0 | 0.00 | 0.00 | 0.00 | 42 | 1014.2 |
| 20260905062156 | 27 | 74 | 0.0 | 0.0 | 0.00 | 0.00 | 0.00 | 42 | 1014.3 |
| 20260905062103 | 26 | 84 | 0.0 | 0.0 | 0.00 | 0.00 | 0.00 | 43 | 1014.3 |
| 20260905061344 | 26 | 231 | 0.0 | 0.0 | 0.00 | 0.00 | 0.00 | 44 | 1014.2 |
| 20260905061231 | 26 | 231 | 0.0 | 0.0 | 0.00 | 0.00 | 0.00 | 44 | 1014.3 |
| 20260905061144 | 26 | 231 | 0.0 | 0.0 | 0.00 | 0.00 | 0.00 | 44 | 1014.3 |
| 20260905060947 | 26 | 231 | 0.0 | 0.0 | 0.00 | 0.00 | 0.00 | 44 | 1014.2 |
| 20260905060837 | 26 | 231 | 0.0 | 0.0 | 0.00 | 0.00 | 0.00 | 44 | 1014.3 |
| 20260905060405 | 25 | 231 | 0.0 | 0.0 | 0.00 | 0.00 | 0.00 | 45 | 1014.4 |
| 20260905060327 | 25 | 231 | 0.0 | 0.0 | 0.00 | 0.00 | 0.00 | 45 | 1014.3 |
| 20260905060249 | 25 | 231 | 0.0 | 0.0 | 0.00 | 0.00 | 0.00 | 45 | 1014.4 |
| 20260905055730 | 25 | 231 | 0.0 | 0.0 | 0.00 | 0.00 | 0.00 | 45 | 1014.5 |
| 20260905055543 | 25 | 231 | 0.0 | 0.0 | 0.00 | 0.00 | 0.00 | 45 | 1014.5 |
| 20260905055342 | 25 | 231 | 0.0 | 0.0 | 0.00 | 0.00 | 0.00 | 45 | 1014.5 |
| 20260905055231 | 25 | 231 | 0.0 | 0.0 | 0.00 | 0.00 | 0.00 | 46 | 1014.4 |
| 20260905055143 | 25 | 231 | 0.0 | 0.0 | 0.00 | 0.00 | 0.00 | 46 | 1014.4 |
| 20260905055047 | 25 | 231 | 0.0 | 0.0 | 0.00 | 0.00 | 0.00 | 46 | 1014.5 |
| 20260905054732 | 25 | 231 | 0.0 | 0.0 | 0.00 | 0.00 | 0.00 | 46 | 1014.5 |
| 20260905054538 | 25 | 231 | 0.0 | 0.0 | 0.00 | 0.00 | 0.00 | 47 | 1014.5 |
| 20260905054337 | 25 | 231 | 0.0 | 0.0 | 0.00 | 0.00 | 0.00 | 47 | 1014.5 |
| 20260905054231 | 25 | 231 | 0.0 | 0.0 | 0.00 | 0.00 | 0.00 | 47 | 1014.5 |
| 20260905054137 | 25 | 231 | 0.0 | 0.0 | 0.00 | 0.00 | 0.00 | 47 | 1014.5 |
| 20260905053938 | 25 | 231 | 0.0 | 0.0 | 0.00 | 0.00 | 0.00 | 48 | 1014.5 |
| 20260905053723 | 24 | 231 | 0.0 | 0.0 | 0.00 | 0.00 | 0.00 | 48 | 1014.4 |
| 20260905053537 | 24 | 231 | 0.0 | 0.0 | 0.00 | 0.00 | 0.00 | 48 | 1014.4 |
| 20260905053333 | 24 | 231 | 0.0 | 0.0 | 0.00 | 0.00 | 0.00 | 48 | 1014.4 |
| 20260905053221 | 24 | 231 | 0.0 | 0.0 | 0.00 | 0.00 | 0.00 | 48 | 1014.4 |
| 20260905053131 | 24 | 231 | 0.0 | 0.0 | 0.00 | 0.00 | 0.00 | 48 | 1014.5 |
| 20260905052955 | 24 | 231 | 0.0 | 0.0 | 0.00 | 0.00 | 0.00 | 48 | 1014.5 |
| 20260905052844 | 24 | 231 | 0.0 | 0.0 | 0.00 | 0.00 | 0.00 | 49 | 1014.4 |
| 20260905052805 | 24 | 231 | 0.0 | 0.0 | 0.00 | 0.00 | 0.00 | 49 | 1014.4 |